GEFSGL_prec_meanprecacc_114.txt.gz
Total_Precipitation_Accumulation
0.00 0.00 0.00 0.00 0.00 0.01 0.02 0.02 0.03 0.03 0.03 0.05 0.07 0.10 0.13 0.18 0.22 0.25 0.26 0.27 0.28 0.28 0.28 0.31 0.33 0.37 0.43 0.43 0.42 0.42 0.40 0.45 0.45 0.13 0.05 0.07 0.13 0.18 0.19 0.18 0.16 0.15 0.18
0.00 0.00 0.00 0.00 0.01 0.02 0.04 0.06 0.06 0.06 0.07 0.09 0.12 0.16 0.20 0.23 0.26 0.33 0.36 0.37 0.42 0.41 0.38 0.37 0.39 0.41 0.45 0.48 0.51 0.49 0.44 0.40 0.45 0.28 0.09 0.07 0.13 0.19 0.23 0.25 0.24 0.20 0.16
0.00 0.00 0.00 0.00 0.01 0.03 0.06 0.10 0.15 0.19 0.21 0.23 0.26 0.31 0.38 0.41 0.43 0.46 0.50 0.58 0.64 0.63 0.60 0.59 0.54 0.52 0.55 0.52 0.54 0.54 0.49 0.42 0.39 0.36 0.19 0.13 0.16 0.21 0.28 0.31 0.32 0.29 0.23
0.00 0.00 0.00 0.01 0.04 0.06 0.09 0.15 0.24 0.34 0.41 0.46 0.50 0.54 0.59 0.67 0.78 0.83 0.81 0.81 0.81 0.78 0.77 0.77 0.76 0.75 0.74 0.71 0.69 0.63 0.58 0.56 0.49 0.45 0.33 0.24 0.24 0.26 0.36 0.40 0.40 0.37 0.34
0.01 0.01 0.02 0.05 0.10 0.17 0.20 0.23 0.31 0.40 0.48 0.52 0.53 0.55 0.59 0.81 1.15 1.27 1.11 0.90 0.76 0.72 0.71 0.72 0.79 0.90 0.96 0.99 1.05 0.91 0.78 0.79 0.73 0.66 0.53 0.40 0.34 0.37 0.44 0.47 0.55 0.51 0.45
0.02 0.03 0.06 0.11 0.18 0.25 0.29 0.32 0.39 0.45 0.48 0.47 0.48 0.48 0.50 0.67 1.07 1.21 0.93 0.65 0.52 0.55 0.60 0.58 0.60 0.72 0.80 0.86 0.99 1.00 1.01 1.07 1.07 0.97 0.82 0.68 0.51 0.46 0.50 0.62 0.71 0.77 0.70
0.04 0.06 0.10 0.13 0.17 0.20 0.23 0.28 0.33 0.31 0.27 0.29 0.35 0.34 0.34 0.45 0.81 0.94 0.66 0.36 0.26 0.31 0.40 0.43 0.44 0.51 0.63 0.65 0.68 0.70 0.78 0.91 1.09 1.17 1.14 0.91 0.71 0.60 0.66 0.74 0.78 0.85 0.80
0.04 0.07 0.10 0.12 0.16 0.14 0.13 0.17 0.20 0.17 0.16 0.19 0.21 0.18 0.15 0.23 0.56 0.75 0.53 0.23 0.17 0.21 0.29 0.34 0.34 0.38 0.51 0.68 0.75 0.63 0.56 0.66 0.90 1.08 1.21 1.08 0.90 0.85 0.97 1.08 1.11 1.10 1.02
0.04 0.05 0.07 0.10 0.14 0.12 0.10 0.11 0.14 0.14 0.13 0.12 0.11 0.08 0.06 0.10 0.38 0.70 0.55 0.22 0.17 0.16 0.21 0.29 0.29 0.26 0.42 0.59 0.65 0.58 0.47 0.50 0.61 0.84 1.00 1.02 1.00 1.07 1.22 1.44 1.55 1.58 1.49
0.02 0.03 0.03 0.04 0.06 0.05 0.04 0.03 0.04 0.06 0.06 0.06 0.04 0.04 0.03 0.04 0.20 0.62 0.68 0.30 0.21 0.16 0.17 0.23 0.31 0.32 0.43 0.50 0.50 0.52 0.55 0.50 0.43 0.45 0.52 0.61 0.69 0.78 1.01 1.27 1.44 1.58 1.57
0.00 0.00 0.00 0.00 0.01 0.01 0.02 0.02 0.02 0.03 0.03 0.03 0.03 0.03 0.02 0.03 0.07 0.39 0.77 0.54 0.32 0.22 0.21 0.26 0.27 0.31 0.36 0.40 0.44 0.50 0.61 0.52 0.41 0.43 0.44 0.46 0.53 0.64 0.78 1.01 1.27 1.46 1.58
0.00 0.00 0.00 0.00 0.01 0.01 0.02 0.02 0.02 0.03 0.04 0.04 0.04 0.03 0.03 0.03 0.06 0.24 0.52 0.65 0.49 0.31 0.28 0.21 0.20 0.24 0.28 0.33 0.35 0.41 0.42 0.42 0.44 0.43 0.41 0.41 0.47 0.57 0.68 0.81 1.03 1.25 1.38
0.00 0.00 0.00 0.01 0.01 0.02 0.02 0.03 0.03 0.04 0.06 0.08 0.07 0.06 0.05 0.05 0.09 0.22 0.27 0.32 0.41 0.37 0.36 0.33 0.23 0.21 0.22 0.20 0.21 0.27 0.30 0.32 0.41 0.41 0.36 0.35 0.41 0.52 0.58 0.67 0.78 0.98 1.14
0.00 0.01 0.01 0.01 0.02 0.02 0.03 0.04 0.05 0.08 0.19 0.23 0.18 0.15 0.11 0.10 0.20 0.36 0.27 0.18 0.23 0.31 0.32 0.28 0.21 0.18 0.16 0.12 0.11 0.14 0.18 0.25 0.32 0.36 0.32 0.29 0.31 0.40 0.50 0.62 0.74 0.86 1.04
0.01 0.01 0.01 0.02 0.03 0.03 0.04 0.04 0.06 0.09 0.27 0.40 0.32 0.31 0.31 0.32 0.40 0.51 0.45 0.39 0.38 0.39 0.39 0.35 0.26 0.20 0.19 0.16 0.12 0.10 0.12 0.17 0.23 0.25 0.27 0.29 0.31 0.37 0.44 0.53 0.70 0.83 0.99
0.01 0.02 0.02 0.04 0.04 0.04 0.05 0.05 0.05 0.08 0.14 0.17 0.20 0.28 0.29 0.40 0.43 0.38 0.38 0.40 0.41 0.40 0.42 0.40 0.25 0.18 0.17 0.15 0.14 0.12 0.11 0.13 0.16 0.21 0.25 0.27 0.31 0.37 0.42 0.47 0.61 0.77 0.89
0.02 0.03 0.05 0.05 0.05 0.06 0.07 0.09 0.10 0.07 0.06 0.07 0.09 0.15 0.24 0.32 0.30 0.28 0.32 0.31 0.30 0.30 0.33 0.26 0.18 0.16 0.15 0.14 0.13 0.13 0.11 0.09 0.12 0.18 0.21 0.22 0.25 0.31 0.37 0.42 0.49 0.63 0.77
0.02 0.03 0.06 0.06 0.07 0.09 0.11 0.13 0.14 0.14 0.11 0.06 0.05 0.07 0.14 0.22 0.22 0.21 0.25 0.27 0.23 0.18 0.19 0.18 0.16 0.14 0.14 0.14 0.14 0.13 0.12 0.11 0.13 0.15 0.16 0.17 0.21 0.29 0.33 0.36 0.42 0.54 0.66
0.02 0.04 0.07 0.08 0.08 0.10 0.12 0.14 0.14 0.14 0.13 0.10 0.07 0.07 0.09 0.13 0.14 0.13 0.16 0.22 0.20 0.15 0.13 0.13 0.13 0.13 0.13 0.14 0.14 0.14 0.14 0.14 0.12 0.14 0.15 0.15 0.18 0.24 0.28 0.28 0.34 0.44 0.58
0.03 0.05 0.08 0.09 0.10 0.12 0.14 0.16 0.17 0.17 0.16 0.14 0.12 0.10 0.16 0.22 0.20 0.14 0.15 0.17 0.17 0.15 0.12 0.12 0.11 0.11 0.13 0.15 0.15 0.16 0.16 0.14 0.13 0.14 0.14 0.14 0.15 0.19 0.23 0.25 0.30 0.38 0.47
0.04 0.05 0.08 0.10 0.12 0.14 0.18 0.20 0.21 0.23 0.22 0.18 0.13 0.12 0.29 0.36 0.27 0.18 0.15 0.15 0.17 0.17 0.15 0.14 0.13 0.13 0.13 0.15 0.16 0.16 0.16 0.14 0.12 0.13 0.13 0.13 0.13 0.15 0.17 0.21 0.25 0.31 0.40
0.07 0.09 0.11 0.14 0.16 0.18 0.22 0.23 0.24 0.25 0.22 0.20 0.15 0.11 0.18 0.21 0.19 0.16 0.15 0.14 0.13 0.15 0.17 0.19 0.17 0.15 0.16 0.20 0.22 0.22 0.18 0.14 0.12 0.13 0.13 0.13 0.12 0.12 0.14 0.17 0.20 0.26 0.34
0.11 0.14 0.14 0.14 0.17 0.20 0.21 0.18 0.20 0.22 0.22 0.19 0.17 0.17 0.16 0.16 0.16 0.16 0.16 0.14 0.14 0.14 0.14 0.18 0.19 0.15 0.14 0.18 0.20 0.24 0.24 0.17 0.14 0.15 0.17 0.16 0.13 0.12 0.13 0.15 0.17 0.24 0.31
0.14 0.15 0.16 0.18 0.19 0.21 0.21 0.20 0.21 0.22 0.22 0.22 0.20 0.19 0.17 0.16 0.15 0.14 0.13 0.12 0.13 0.13 0.14 0.18 0.19 0.17 0.17 0.20 0.20 0.19 0.19 0.19 0.20 0.20 0.19 0.18 0.16 0.13 0.14 0.16 0.16 0.20 0.27
0.12 0.15 0.18 0.21 0.24 0.25 0.26 0.24 0.23 0.23 0.24 0.24 0.22 0.19 0.16 0.14 0.13 0.12 0.11 0.12 0.13 0.14 0.13 0.16 0.19 0.19 0.19 0.19 0.20 0.20 0.19 0.22 0.28 0.35 0.41 0.41 0.33 0.24 0.21 0.21 0.19 0.21 0.26
0.12 0.15 0.20 0.24 0.27 0.29 0.32 0.32 0.29 0.27 0.28 0.25 0.21 0.20 0.18 0.17 0.15 0.13 0.13 0.15 0.18 0.18 0.16 0.15 0.16 0.19 0.20 0.19 0.19 0.21 0.23 0.29 0.38 0.52 0.67 0.68 0.48 0.30 0.23 0.24 0.22 0.23 0.27

GEFSGL_prec_meanprecacc_120.txt.gz
Total_Precipitation_Accumulation
0.00 0.00 0.00 0.00 0.00 0.01 0.02 0.02 0.03 0.03 0.03 0.05 0.07 0.10 0.13 0.18 0.22 0.25 0.26 0.27 0.28 0.28 0.28 0.31 0.33 0.37 0.43 0.43 0.42 0.42 0.40 0.45 0.45 0.13 0.05 0.07 0.13 0.18 0.19 0.18 0.16 0.15 0.18
0.00 0.00 0.00 0.00 0.01 0.02 0.04 0.06 0.06 0.06 0.07 0.09 0.12 0.16 0.20 0.23 0.26 0.33 0.36 0.37 0.42 0.41 0.38 0.37 0.39 0.41 0.45 0.48 0.51 0.49 0.44 0.40 0.45 0.29 0.09 0.07 0.13 0.19 0.23 0.25 0.24 0.20 0.16
0.00 0.00 0.00 0.00 0.01 0.03 0.06 0.10 0.15 0.19 0.21 0.23 0.26 0.31 0.38 0.41 0.43 0.46 0.50 0.58 0.64 0.63 0.60 0.59 0.54 0.52 0.55 0.52 0.54 0.54 0.49 0.42 0.40 0.36 0.20 0.13 0.16 0.21 0.29 0.31 0.32 0.29 0.23
0.00 0.00 0.00 0.01 0.04 0.06 0.09 0.15 0.24 0.34 0.41 0.46 0.50 0.54 0.59 0.67 0.78 0.83 0.81 0.81 0.81 0.78 0.77 0.77 0.76 0.75 0.74 0.71 0.69 0.63 0.58 0.56 0.49 0.45 0.34 0.24 0.25 0.27 0.36 0.40 0.41 0.37 0.34
0.01 0.01 0.02 0.05 0.10 0.17 0.20 0.23 0.31 0.40 0.48 0.52 0.53 0.55 0.59 0.81 1.15 1.27 1.11 0.90 0.76 0.72 0.71 0.72 0.79 0.90 0.96 1.00 1.05 0.91 0.78 0.79 0.74 0.67 0.54 0.41 0.34 0.37 0.45 0.48 0.56 0.51 0.46
0.02 0.03 0.06 0.11 0.18 0.25 0.29 0.32 0.39 0.45 0.48 0.47 0.48 0.48 0.50 0.67 1.07 1.21 0.93 0.65 0.52 0.55 0.60 0.58 0.60 0.72 0.80 0.86 0.99 1.01 1.01 1.08 1.08 0.98 0.84 0.69 0.52 0.47 0.51 0.63 0.72 0.79 0.71
0.04 0.06 0.10 0.13 0.17 0.20 0.23 0.28 0.33 0.31 0.27 0.29 0.35 0.34 0.34 0.45 0.81 0.94 0.66 0.36 0.26 0.31 0.40 0.43 0.44 0.51 0.63 0.65 0.69 0.70 0.78 0.91 1.10 1.18 1.16 0.92 0.72 0.61 0.67 0.76 0.80 0.87 0.82
0.04 0.07 0.10 0.12 0.16 0.14 0.13 0.17 0.20 0.17 0.16 0.19 0.21 0.18 0.15 0.23 0.56 0.75 0.53 0.23 0.17 0.21 0.29 0.34 0.34 0.38 0.51 0.68 0.75 0.63 0.56 0.66 0.91 1.09 1.22 1.08 0.91 0.87 0.99 1.12 1.16 1.16 1.07
0.04 0.05 0.07 0.10 0.14 0.12 0.10 0.11 0.14 0.14 0.13 0.12 0.11 0.08 0.06 0.10 0.38 0.70 0.55 0.22 0.17 0.16 0.21 0.29 0.29 0.26 0.42 0.60 0.66 0.59 0.48 0.51 0.61 0.85 1.01 1.04 1.03 1.11 1.27 1.50 1.62 1.65 1.54
0.02 0.03 0.03 0.04 0.06 0.05 0.04 0.03 0.04 0.06 0.06 0.06 0.04 0.04 0.03 0.04 0.20 0.62 0.68 0.30 0.21 0.16 0.17 0.23 0.31 0.32 0.43 0.51 0.52 0.54 0.57 0.51 0.44 0.46 0.54 0.62 0.70 0.79 1.02 1.30 1.48 1.63 1.61
0.00 0.00 0.00 0.00 0.01 0.01 0.02 0.02 0.02 0.03 0.03 0.03 0.03 0.03 0.02 0.03 0.07 0.39 0.77 0.54 0.32 0.23 0.21 0.26 0.27 0.32 0.37 0.41 0.46 0.52 0.64 0.55 0.44 0.46 0.47 0.48 0.54 0.65 0.79 1.02 1.28 1.49 1.63
0.00 0.00 0.00 0.00 0.01 0.01 0.02 0.02 0.02 0.03 0.04 0.04 0.04 0.03 0.03 0.03 0.06 0.24 0.52 0.65 0.50 0.31 0.28 0.21 0.21 0.25 0.29 0.35 0.38 0.43 0.45 0.45 0.47 0.46 0.44 0.43 0.48 0.58 0.69 0.82 1.04 1.27 1.40
0.00 0.00 0.00 0.01 0.01 0.02 0.02 0.03 0.03 0.04 0.06 0.08 0.07 0.06 0.05 0.05 0.09 0.22 0.27 0.32 0.41 0.37 0.37 0.34 0.23 0.22 0.24 0.22 0.23 0.29 0.32 0.34 0.43 0.43 0.38 0.36 0.42 0.53 0.59 0.68 0.79 0.99 1.15
0.00 0.01 0.01 0.01 0.02 0.02 0.03 0.04 0.05 0.08 0.19 0.23 0.18 0.15 0.11 0.10 0.20 0.36 0.27 0.18 0.24 0.32 0.33 0.29 0.22 0.19 0.17 0.13 0.12 0.15 0.19 0.25 0.33 0.37 0.34 0.30 0.32 0.41 0.51 0.63 0.75 0.87 1.05
0.01 0.01 0.01 0.02 0.03 0.03 0.04 0.04 0.06 0.09 0.27 0.40 0.32 0.31 0.31 0.33 0.40 0.51 0.45 0.40 0.40 0.41 0.41 0.38 0.29 0.23 0.21 0.17 0.13 0.10 0.12 0.18 0.24 0.27 0.28 0.31 0.33 0.39 0.45 0.54 0.71 0.84 1.01
0.01 0.02 0.02 0.04 0.04 0.04 0.05 0.05 0.05 0.08 0.14 0.17 0.20 0.28 0.29 0.40 0.43 0.38 0.39 0.41 0.42 0.42 0.45 0.44 0.28 0.21 0.19 0.17 0.16 0.14 0.12 0.14 0.17 0.22 0.26 0.28 0.32 0.38 0.43 0.48 0.62 0.78 0.91
0.02 0.03 0.05 0.05 0.05 0.06 0.07 0.09 0.10 0.07 0.06 0.07 0.09 0.15 0.24 0.32 0.30 0.28 0.32 0.32 0.31 0.32 0.35 0.28 0.19 0.17 0.16 0.15 0.15 0.15 0.13 0.10 0.13 0.19 0.22 0.23 0.27 0.33 0.38 0.43 0.51 0.64 0.78
0.02 0.03 0.06 0.06 0.07 0.09 0.11 0.13 0.15 0.15 0.11 0.06 0.05 0.07 0.14 0.22 0.22 0.22 0.26 0.28 0.24 0.19 0.20 0.19 0.17 0.15 0.14 0.15 0.15 0.14 0.13 0.12 0.14 0.16 0.18 0.19 0.23 0.30 0.35 0.37 0.43 0.56 0.67
0.02 0.04 0.07 0.08 0.09 0.10 0.12 0.14 0.14 0.14 0.13 0.10 0.07 0.07 0.09 0.13 0.14 0.13 0.17 0.22 0.20 0.16 0.14 0.14 0.14 0.14 0.14 0.15 0.15 0.15 0.15 0.15 0.14 0.16 0.17 0.17 0.19 0.26 0.30 0.30 0.35 0.45 0.60
0.03 0.05 0.08 0.09 0.10 0.12 0.14 0.16 0.17 0.17 0.17 0.14 0.12 0.11 0.16 0.22 0.20 0.15 0.15 0.17 0.18 0.16 0.13 0.13 0.12 0.12 0.15 0.16 0.17 0.18 0.18 0.16 0.14 0.16 0.16 0.15 0.16 0.21 0.25 0.26 0.31 0.40 0.49
0.04 0.05 0.09 0.10 0.12 0.14 0.18 0.20 0.22 0.23 0.22 0.18 0.13 0.12 0.29 0.37 0.28 0.18 0.16 0.16 0.18 0.18 0.16 0.15 0.14 0.14 0.15 0.16 0.18 0.18 0.18 0.16 0.13 0.15 0.15 0.14 0.15 0.17 0.18 0.22 0.26 0.33 0.41
0.07 0.09 0.11 0.14 0.16 0.19 0.22 0.23 0.25 0.25 0.23 0.20 0.15 0.12 0.18 0.22 0.19 0.17 0.15 0.14 0.14 0.16 0.17 0.20 0.19 0.16 0.18 0.22 0.24 0.24 0.21 0.16 0.13 0.14 0.15 0.14 0.14 0.14 0.15 0.19 0.21 0.27 0.35
0.11 0.14 0.15 0.15 0.17 0.20 0.21 0.18 0.20 0.23 0.22 0.20 0.18 0.17 0.16 0.17 0.16 0.17 0.16 0.14 0.14 0.15 0.15 0.19 0.21 0.17 0.16 0.19 0.22 0.27 0.26 0.19 0.15 0.16 0.19 0.17 0.15 0.13 0.14 0.16 0.19 0.25 0.33
0.15 0.15 0.17 0.18 0.19 0.21 0.22 0.21 0.21 0.23 0.23 0.22 0.21 0.19 0.18 0.16 0.16 0.14 0.14 0.13 0.14 0.14 0.15 0.19 0.20 0.18 0.18 0.21 0.21 0.21 0.21 0.20 0.21 0.22 0.20 0.20 0.18 0.15 0.16 0.17 0.18 0.21 0.28
0.13 0.15 0.18 0.21 0.24 0.25 0.26 0.25 0.23 0.24 0.25 0.24 0.22 0.20 0.17 0.15 0.14 0.12 0.11 0.13 0.14 0.14 0.14 0.17 0.20 0.21 0.20 0.20 0.21 0.22 0.21 0.24 0.30 0.38 0.45 0.44 0.35 0.25 0.23 0.23 0.21 0.22 0.27
0.12 0.16 0.20 0.24 0.27 0.29 0.32 0.33 0.29 0.28 0.28 0.25 0.22 0.20 0.18 0.17 0.16 0.14 0.14 0.16 0.19 0.19 0.17 0.16 0.17 0.20 0.21 0.20 0.20 0.22 0.25 0.30 0.40 0.54 0.72 0.73 0.52 0.32 0.25 0.26 0.23 0.24 0.28

GEFSGL_prec_meanprecacc_126.txt.gz
Total_Precipitation_Accumulation
0.00 0.00 0.00 0.00 0.00 0.01 0.02 0.02 0.03 0.03 0.03 0.05 0.07 0.10 0.13 0.18 0.22 0.25 0.26 0.27 0.28 0.28 0.28 0.31 0.33 0.37 0.43 0.43 0.42 0.42 0.40 0.45 0.45 0.13 0.05 0.07 0.13 0.18 0.19 0.18 0.16 0.15 0.18
0.00 0.00 0.00 0.00 0.01 0.02 0.04 0.06 0.06 0.06 0.07 0.09 0.12 0.16 0.20 0.23 0.26 0.33 0.36 0.37 0.42 0.41 0.38 0.37 0.39 0.41 0.45 0.48 0.51 0.49 0.44 0.40 0.45 0.29 0.09 0.07 0.13 0.19 0.23 0.25 0.24 0.20 0.16
0.00 0.00 0.00 0.00 0.01 0.03 0.06 0.10 0.15 0.19 0.21 0.23 0.26 0.31 0.38 0.41 0.43 0.46 0.50 0.58 0.64 0.63 0.60 0.59 0.54 0.52 0.55 0.52 0.54 0.54 0.49 0.42 0.40 0.36 0.20 0.13 0.16 0.22 0.29 0.31 0.32 0.29 0.23
0.00 0.00 0.00 0.01 0.04 0.06 0.09 0.15 0.25 0.34 0.41 0.46 0.50 0.54 0.59 0.67 0.78 0.83 0.81 0.81 0.81 0.78 0.77 0.77 0.76 0.75 0.74 0.71 0.69 0.63 0.58 0.56 0.49 0.45 0.34 0.25 0.25 0.27 0.37 0.41 0.41 0.38 0.34
0.01 0.01 0.02 0.05 0.10 0.17 0.20 0.23 0.31 0.40 0.48 0.52 0.53 0.55 0.59 0.81 1.15 1.27 1.11 0.90 0.76 0.72 0.71 0.72 0.79 0.90 0.96 1.00 1.05 0.91 0.79 0.80 0.74 0.68 0.54 0.42 0.35 0.38 0.45 0.48 0.57 0.52 0.46
0.02 0.03 0.06 0.11 0.18 0.25 0.29 0.32 0.39 0.45 0.48 0.47 0.48 0.48 0.50 0.67 1.07 1.21 0.93 0.65 0.52 0.55 0.60 0.58 0.60 0.72 0.80 0.86 0.99 1.01 1.02 1.08 1.09 0.99 0.85 0.70 0.53 0.47 0.52 0.64 0.74 0.80 0.72
0.04 0.06 0.10 0.13 0.17 0.20 0.23 0.28 0.33 0.31 0.27 0.29 0.35 0.34 0.34 0.45 0.81 0.94 0.66 0.36 0.26 0.31 0.40 0.43 0.44 0.51 0.63 0.65 0.69 0.70 0.78 0.92 1.11 1.19 1.17 0.93 0.73 0.62 0.68 0.77 0.81 0.89 0.84
0.04 0.07 0.10 0.12 0.16 0.14 0.13 0.17 0.20 0.17 0.16 0.19 0.21 0.18 0.15 0.23 0.56 0.75 0.53 0.23 0.17 0.21 0.29 0.34 0.34 0.38 0.51 0.68 0.75 0.63 0.56 0.67 0.91 1.10 1.23 1.09 0.92 0.88 1.00 1.15 1.20 1.20 1.10
0.04 0.05 0.07 0.10 0.14 0.12 0.10 0.11 0.14 0.14 0.13 0.12 0.11 0.08 0.06 0.10 0.38 0.70 0.56 0.22 0.17 0.16 0.21 0.29 0.29 0.26 0.42 0.60 0.66 0.60 0.48 0.51 0.62 0.86 1.03 1.06 1.05 1.13 1.30 1.54 1.67 1.70 1.58
0.02 0.03 0.03 0.04 0.06 0.05 0.04 0.03 0.04 0.06 0.06 0.06 0.04 0.04 0.03 0.04 0.20 0.62 0.68 0.30 0.21 0.16 0.17 0.23 0.31 0.33 0.43 0.51 0.53 0.55 0.58 0.52 0.45 0.47 0.55 0.63 0.71 0.80 1.04 1.32 1.51 1.68 1.67
0.00 0.00 0.00 0.00 0.01 0.01 0.02 0.02 0.02 0.03 0.03 0.03 0.03 0.03 0.03 0.03 0.07 0.39 0.77 0.54 0.32 0.23 0.22 0.26 0.27 0.32 0.38 0.42 0.47 0.54 0.65 0.57 0.46 0.48 0.49 0.50 0.55 0.65 0.80 1.03 1.30 1.52 1.67
0.00 0.00 0.00 0.00 0.01 0.01 0.02 0.02 0.02 0.03 0.04 0.04 0.04 0.03 0.03 0.03 0.06 0.24 0.52 0.65 0.50 0.31 0.28 0.21 0.21 0.25 0.30 0.36 0.39 0.45 0.47 0.48 0.50 0.49 0.46 0.45 0.50 0.60 0.70 0.83 1.05 1.28 1.42
0.00 0.00 0.00 0.01 0.01 0.02 0.02 0.03 0.03 0.04 0.06 0.08 0.07 0.06 0.05 0.05 0.09 0.22 0.27 0.32 0.41 0.37 0.37 0.34 0.24 0.23 0.25 0.23 0.24 0.30 0.33 0.35 0.44 0.45 0.40 0.38 0.43 0.54 0.60 0.69 0.80 1.00 1.16
0.00 0.01 0.01 0.01 0.02 0.02 0.03 0.04 0.05 0.08 0.19 0.23 0.18 0.15 0.11 0.10 0.20 0.36 0.27 0.19 0.24 0.32 0.34 0.30 0.22 0.20 0.17 0.14 0.12 0.15 0.20 0.26 0.35 0.39 0.36 0.32 0.33 0.42 0.52 0.64 0.77 0.88 1.07
0.01 0.01 0.01 0.02 0.03 0.03 0.04 0.04 0.06 0.09 0.27 0.40 0.32 0.31 0.31 0.33 0.40 0.52 0.46 0.41 0.40 0.42 0.42 0.39 0.30 0.23 0.22 0.18 0.14 0.11 0.13 0.19 0.26 0.28 0.30 0.32 0.34 0.40 0.46 0.56 0.73 0.86 1.03
0.01 0.02 0.02 0.04 0.04 0.04 0.05 0.05 0.05 0.08 0.14 0.17 0.20 0.28 0.29 0.40 0.43 0.38 0.39 0.41 0.42 0.43 0.46 0.45 0.29 0.21 0.20 0.18 0.17 0.15 0.13 0.15 0.19 0.24 0.28 0.30 0.34 0.40 0.45 0.49 0.64 0.80 0.92
0.02 0.03 0.05 0.05 0.05 0.06 0.07 0.09 0.10 0.07 0.06 0.07 0.09 0.15 0.24 0.32 0.30 0.29 0.32 0.32 0.32 0.32 0.36 0.29 0.20 0.18 0.17 0.16 0.15 0.15 0.14 0.10 0.14 0.21 0.24 0.25 0.29 0.34 0.40 0.45 0.52 0.66 0.79
0.02 0.03 0.06 0.06 0.07 0.09 0.11 0.13 0.15 0.15 0.11 0.06 0.05 0.07 0.14 0.22 0.22 0.22 0.26 0.29 0.24 0.19 0.20 0.19 0.18 0.16 0.15 0.16 0.15 0.15 0.14 0.13 0.15 0.18 0.19 0.20 0.24 0.32 0.37 0.39 0.45 0.57 0.69
0.02 0.04 0.07 0.08 0.09 0.10 0.12 0.14 0.14 0.14 0.13 0.10 0.07 0.07 0.09 0.13 0.14 0.14 0.17 0.23 0.21 0.16 0.14 0.14 0.14 0.14 0.15 0.15 0.15 0.16 0.16 0.16 0.15 0.17 0.18 0.19 0.21 0.29 0.32 0.31 0.37 0.46 0.61
0.03 0.05 0.08 0.09 0.10 0.12 0.14 0.16 0.17 0.17 0.17 0.14 0.12 0.11 0.16 0.22 0.20 0.15 0.15 0.18 0.19 0.16 0.14 0.14 0.13 0.13 0.15 0.17 0.18 0.19 0.19 0.17 0.16 0.17 0.17 0.17 0.18 0.23 0.27 0.27 0.32 0.41 0.50
0.04 0.05 0.09 0.10 0.12 0.14 0.18 0.20 0.22 0.23 0.23 0.19 0.13 0.12 0.29 0.38 0.29 0.19 0.16 0.17 0.18 0.18 0.17 0.16 0.15 0.15 0.15 0.17 0.20 0.20 0.20 0.17 0.15 0.17 0.17 0.16 0.16 0.18 0.19 0.24 0.28 0.34 0.42
0.07 0.09 0.11 0.14 0.16 0.19 0.22 0.24 0.25 0.26 0.23 0.21 0.15 0.12 0.19 0.22 0.19 0.17 0.16 0.14 0.14 0.16 0.18 0.21 0.20 0.17 0.19 0.23 0.25 0.26 0.22 0.18 0.15 0.16 0.17 0.16 0.15 0.15 0.16 0.20 0.23 0.29 0.37
0.11 0.14 0.15 0.15 0.17 0.20 0.21 0.19 0.20 0.23 0.22 0.20 0.18 0.17 0.17 0.17 0.16 0.17 0.16 0.15 0.15 0.15 0.15 0.20 0.21 0.18 0.17 0.20 0.23 0.28 0.28 0.21 0.16 0.18 0.22 0.20 0.17 0.15 0.15 0.18 0.20 0.27 0.34
0.15 0.16 0.17 0.18 0.19 0.21 0.22 0.21 0.21 0.23 0.23 0.22 0.21 0.19 0.18 0.17 0.16 0.14 0.14 0.13 0.14 0.14 0.15 0.19 0.21 0.19 0.18 0.22 0.23 0.22 0.22 0.21 0.23 0.24 0.23 0.23 0.20 0.16 0.17 0.19 0.19 0.22 0.30
0.13 0.15 0.18 0.21 0.24 0.26 0.26 0.25 0.24 0.24 0.25 0.24 0.23 0.20 0.17 0.15 0.14 0.13 0.12 0.13 0.14 0.15 0.15 0.17 0.20 0.21 0.21 0.21 0.22 0.23 0.22 0.26 0.33 0.41 0.48 0.47 0.37 0.27 0.24 0.24 0.22 0.23 0.28
0.12 0.16 0.20 0.24 0.28 0.29 0.32 0.33 0.30 0.28 0.28 0.26 0.22 0.20 0.19 0.18 0.16 0.14 0.14 0.16 0.20 0.19 0.17 0.16 0.17 0.21 0.22 0.21 0.21 0.23 0.26 0.32 0.42 0.58 0.77 0.78 0.54 0.34 0.26 0.27 0.24 0.25 0.29

GEFSGL_prec_meanprecacc_132.txt.gz
Total_Precipitation_Accumulation
0.00 0.00 0.00 0.00 0.00 0.01 0.02 0.02 0.03 0.03 0.03 0.05 0.07 0.10 0.13 0.18 0.22 0.25 0.26 0.27 0.29 0.28 0.28 0.31 0.33 0.37 0.43 0.43 0.42 0.42 0.40 0.45 0.45 0.13 0.05 0.07 0.13 0.18 0.19 0.18 0.16 0.15 0.18
0.00 0.00 0.00 0.00 0.01 0.02 0.04 0.06 0.06 0.06 0.07 0.09 0.13 0.16 0.20 0.23 0.27 0.33 0.36 0.37 0.42 0.41 0.38 0.37 0.39 0.41 0.45 0.48 0.51 0.49 0.44 0.40 0.45 0.29 0.09 0.07 0.13 0.19 0.23 0.25 0.24 0.20 0.16
0.00 0.00 0.00 0.00 0.01 0.03 0.06 0.10 0.15 0.19 0.21 0.23 0.26 0.32 0.38 0.41 0.43 0.46 0.50 0.58 0.64 0.63 0.60 0.59 0.54 0.53 0.55 0.52 0.54 0.54 0.49 0.42 0.40 0.36 0.20 0.13 0.16 0.22 0.29 0.31 0.32 0.29 0.23
0.00 0.00 0.01 0.01 0.04 0.06 0.09 0.15 0.25 0.34 0.41 0.47 0.51 0.54 0.60 0.67 0.78 0.83 0.81 0.82 0.81 0.78 0.77 0.77 0.77 0.75 0.74 0.71 0.69 0.63 0.58 0.56 0.49 0.45 0.34 0.25 0.25 0.27 0.37 0.41 0.41 0.38 0.34
0.01 0.01 0.02 0.05 0.10 0.17 0.20 0.23 0.31 0.40 0.48 0.52 0.54 0.55 0.60 0.81 1.15 1.27 1.11 0.90 0.76 0.72 0.71 0.72 0.80 0.90 0.96 1.00 1.05 0.91 0.79 0.80 0.74 0.68 0.55 0.42 0.35 0.38 0.45 0.48 0.57 0.52 0.46
0.02 0.03 0.06 0.11 0.18 0.25 0.29 0.32 0.39 0.45 0.48 0.47 0.48 0.48 0.50 0.68 1.07 1.21 0.93 0.65 0.53 0.55 0.60 0.59 0.60 0.72 0.80 0.86 1.00 1.01 1.02 1.09 1.10 0.99 0.85 0.71 0.53 0.48 0.52 0.65 0.74 0.81 0.72
0.04 0.06 0.10 0.13 0.17 0.20 0.23 0.28 0.33 0.31 0.27 0.30 0.35 0.35 0.34 0.45 0.81 0.94 0.66 0.36 0.27 0.32 0.40 0.44 0.45 0.52 0.63 0.66 0.69 0.71 0.79 0.92 1.11 1.20 1.17 0.93 0.73 0.62 0.69 0.78 0.82 0.91 0.86
0.04 0.07 0.10 0.12 0.16 0.14 0.13 0.17 0.20 0.17 0.17 0.20 0.21 0.18 0.16 0.23 0.56 0.75 0.53 0.23 0.17 0.21 0.29 0.34 0.34 0.38 0.51 0.69 0.75 0.64 0.56 0.67 0.91 1.10 1.23 1.09 0.92 0.88 1.02 1.17 1.22 1.23 1.12
0.04 0.05 0.07 0.10 0.14 0.12 0.10 0.11 0.14 0.14 0.13 0.12 0.11 0.08 0.06 0.10 0.38 0.70 0.56 0.22 0.17 0.16 0.21 0.30 0.29 0.26 0.43 0.61 0.67 0.60 0.48 0.51 0.62 0.87 1.04 1.07 1.07 1.15 1.32 1.57 1.70 1.74 1.60
0.02 0.03 0.03 0.04 0.06 0.05 0.04 0.03 0.04 0.06 0.06 0.06 0.04 0.04 0.03 0.04 0.21 0.62 0.68 0.30 0.21 0.16 0.17 0.23 0.31 0.33 0.44 0.52 0.53 0.55 0.58 0.52 0.45 0.48 0.55 0.64 0.72 0.81 1.05 1.33 1.52 1.71 1.70
0.00 0.00 0.00 0.00 0.01 0.01 0.02 0.02 0.02 0.03 0.03 0.03 0.03 0.03 0.03 0.03 0.07 0.39 0.77 0.55 0.33 0.23 0.22 0.26 0.28 0.32 0.38 0.43 0.48 0.54 0.66 0.58 0.47 0.49 0.50 0.51 0.56 0.66 0.80 1.04 1.31 1.55 1.72
0.00 0.00 0.00 0.00 0.01 0.01 0.02 0.02 0.02 0.03 0.04 0.04 0.04 0.03 0.03 0.03 0.06 0.24 0.52 0.65 0.50 0.32 0.29 0.21 0.21 0.25 0.31 0.36 0.40 0.46 0.48 0.49 0.51 0.50 0.47 0.46 0.51 0.60 0.71 0.84 1.06 1.29 1.43
0.00 0.00 0.00 0.01 0.01 0.02 0.02 0.03 0.03 0.04 0.06 0.08 0.07 0.06 0.05 0.05 0.09 0.22 0.27 0.33 0.42 0.38 0.37 0.35 0.24 0.23 0.25 0.23 0.24 0.31 0.34 0.36 0.45 0.47 0.41 0.39 0.44 0.55 0.61 0.70 0.80 1.00 1.17
0.00 0.01 0.01 0.01 0.02 0.02 0.03 0.04 0.05 0.08 0.19 0.23 0.18 0.15 0.11 0.10 0.20 0.36 0.27 0.19 0.24 0.33 0.34 0.30 0.23 0.20 0.18 0.14 0.13 0.16 0.20 0.27 0.36 0.40 0.36 0.32 0.34 0.42 0.53 0.65 0.78 0.90 1.09
0.01 0.01 0.01 0.02 0.03 0.03 0.04 0.04 0.06 0.09 0.27 0.40 0.32 0.31 0.31 0.33 0.40 0.52 0.46 0.41 0.40 0.42 0.42 0.39 0.30 0.24 0.22 0.18 0.14 0.11 0.14 0.20 0.26 0.29 0.30 0.32 0.34 0.41 0.47 0.56 0.75 0.88 1.05
0.01 0.02 0.02 0.04 0.04 0.04 0.05 0.05 0.05 0.08 0.14 0.17 0.20 0.28 0.29 0.40 0.43 0.38 0.39 0.41 0.43 0.43 0.46 0.46 0.29 0.22 0.20 0.19 0.18 0.15 0.13 0.15 0.19 0.25 0.28 0.31 0.35 0.41 0.46 0.51 0.66 0.82 0.94
0.02 0.03 0.05 0.05 0.05 0.06 0.07 0.09 0.10 0.07 0.06 0.07 0.09 0.15 0.24 0.32 0.30 0.29 0.33 0.32 0.32 0.33 0.36 0.29 0.20 0.18 0.17 0.16 0.16 0.16 0.14 0.11 0.14 0.21 0.25 0.26 0.30 0.36 0.42 0.47 0.54 0.67 0.81
0.02 0.03 0.06 0.06 0.07 0.09 0.11 0.13 0.15 0.15 0.11 0.06 0.05 0.07 0.14 0.22 0.22 0.22 0.26 0.29 0.24 0.19 0.20 0.19 0.18 0.16 0.15 0.16 0.16 0.15 0.14 0.13 0.15 0.18 0.20 0.21 0.26 0.34 0.38 0.40 0.46 0.58 0.70
0.02 0.04 0.07 0.08 0.09 0.10 0.12 0.14 0.14 0.14 0.13 0.10 0.07 0.07 0.09 0.13 0.14 0.14 0.17 0.23 0.21 0.16 0.14 0.14 0.14 0.15 0.15 0.16 0.16 0.16 0.17 0.17 0.16 0.18 0.19 0.19 0.22 0.30 0.34 0.33 0.38 0.48 0.63
0.03 0.05 0.08 0.09 0.10 0.12 0.14 0.16 0.17 0.17 0.17 0.14 0.12 0.11 0.16 0.22 0.20 0.15 0.15 0.18 0.19 0.16 0.14 0.14 0.13 0.13 0.16 0.17 0.18 0.19 0.20 0.18 0.16 0.18 0.18 0.17 0.18 0.24 0.28 0.29 0.34 0.43 0.52
0.04 0.05 0.09 0.10 0.12 0.14 0.18 0.20 0.22 0.23 0.23 0.19 0.13 0.12 0.29 0.38 0.29 0.19 0.16 0.17 0.18 0.18 0.17 0.16 0.15 0.15 0.16 0.18 0.20 0.20 0.21 0.18 0.16 0.17 0.17 0.16 0.17 0.19 0.20 0.24 0.28 0.35 0.43
0.07 0.09 0.11 0.14 0.16 0.19 0.22 0.24 0.25 0.26 0.23 0.21 0.15 0.12 0.19 0.22 0.19 0.17 0.16 0.14 0.14 0.16 0.18 0.21 0.20 0.17 0.19 0.23 0.26 0.27 0.23 0.18 0.15 0.16 0.18 0.17 0.16 0.16 0.17 0.21 0.24 0.30 0.37
0.12 0.14 0.15 0.15 0.17 0.20 0.21 0.19 0.20 0.23 0.22 0.20 0.18 0.17 0.17 0.17 0.16 0.17 0.17 0.15 0.15 0.15 0.16 0.20 0.22 0.18 0.17 0.20 0.24 0.29 0.30 0.22 0.17 0.19 0.23 0.21 0.18 0.16 0.16 0.19 0.21 0.27 0.35
0.15 0.16 0.17 0.18 0.20 0.21 0.22 0.21 0.21 0.23 0.23 0.22 0.21 0.19 0.18 0.17 0.16 0.15 0.14 0.14 0.14 0.14 0.15 0.20 0.21 0.20 0.19 0.22 0.23 0.23 0.23 0.22 0.24 0.25 0.24 0.24 0.21 0.17 0.18 0.20 0.19 0.23 0.30
0.13 0.15 0.18 0.22 0.24 0.26 0.26 0.25 0.24 0.24 0.25 0.24 0.23 0.20 0.17 0.15 0.14 0.13 0.12 0.13 0.15 0.15 0.15 0.17 0.21 0.22 0.21 0.21 0.23 0.23 0.23 0.27 0.34 0.43 0.50 0.48 0.38 0.28 0.25 0.24 0.22 0.23 0.28
0.12 0.16 0.20 0.25 0.28 0.30 0.32 0.33 0.30 0.28 0.29 0.26 0.22 0.20 0.19 0.18 0.16 0.15 0.15 0.17 0.20 0.19 0.17 0.17 0.18 0.21 0.22 0.21 0.21 0.23 0.27 0.33 0.44 0.60 0.80 0.81 0.56 0.35 0.27 0.28 0.25 0.26 0.30

GEFSGL_prec_meanprecacc_138.txt.gz
Total_Precipitation_Accumulation
0.00 0.00 0.00 0.00 0.00 0.01 0.02 0.03 0.03 0.03 0.04 0.05 0.07 0.10 0.14 0.19 0.23 0.26 0.27 0.28 0.29 0.28 0.29 0.31 0.33 0.38 0.44 0.43 0.42 0.42 0.40 0.45 0.45 0.13 0.05 0.07 0.13 0.18 0.19 0.18 0.16 0.15 0.18
0.00 0.00 0.00 0.00 0.01 0.02 0.04 0.06 0.06 0.07 0.08 0.10 0.13 0.16 0.21 0.24 0.27 0.33 0.37 0.38 0.43 0.42 0.38 0.38 0.39 0.41 0.46 0.48 0.51 0.49 0.44 0.40 0.45 0.29 0.09 0.07 0.13 0.19 0.24 0.25 0.24 0.20 0.16
0.00 0.00 0.00 0.00 0.01 0.03 0.06 0.10 0.15 0.19 0.22 0.24 0.27 0.32 0.38 0.42 0.44 0.46 0.51 0.59 0.65 0.63 0.61 0.60 0.55 0.53 0.55 0.53 0.54 0.54 0.49 0.42 0.40 0.36 0.20 0.13 0.16 0.22 0.29 0.32 0.32 0.29 0.23
0.01 0.00 0.01 0.02 0.04 0.07 0.09 0.15 0.25 0.34 0.42 0.47 0.51 0.54 0.60 0.68 0.79 0.84 0.82 0.83 0.82 0.79 0.77 0.78 0.77 0.75 0.74 0.72 0.70 0.63 0.59 0.57 0.50 0.46 0.34 0.25 0.25 0.27 0.37 0.41 0.41 0.38 0.34
0.01 0.01 0.02 0.05 0.11 0.17 0.20 0.23 0.31 0.40 0.48 0.53 0.54 0.55 0.60 0.82 1.16 1.28 1.12 0.91 0.77 0.73 0.71 0.73 0.80 0.91 0.96 1.00 1.05 0.91 0.79 0.80 0.75 0.69 0.55 0.42 0.35 0.38 0.46 0.49 0.57 0.52 0.46
0.02 0.03 0.06 0.11 0.18 0.26 0.29 0.33 0.40 0.45 0.48 0.48 0.48 0.49 0.51 0.69 1.09 1.22 0.94 0.66 0.53 0.56 0.61 0.59 0.60 0.72 0.80 0.86 1.00 1.02 1.02 1.09 1.10 1.00 0.86 0.71 0.53 0.48 0.53 0.65 0.75 0.82 0.73
0.04 0.06 0.10 0.13 0.17 0.20 0.23 0.28 0.33 0.31 0.27 0.30 0.36 0.36 0.36 0.47 0.82 0.95 0.67 0.37 0.27 0.32 0.41 0.44 0.45 0.52 0.63 0.66 0.69 0.71 0.79 0.92 1.11 1.20 1.18 0.94 0.73 0.62 0.70 0.80 0.83 0.92 0.87
0.04 0.07 0.10 0.12 0.16 0.14 0.13 0.17 0.20 0.17 0.17 0.20 0.22 0.19 0.16 0.24 0.57 0.76 0.53 0.23 0.17 0.21 0.29 0.34 0.34 0.38 0.51 0.69 0.76 0.64 0.57 0.67 0.91 1.10 1.24 1.10 0.93 0.89 1.03 1.19 1.24 1.24 1.13
0.04 0.05 0.07 0.10 0.14 0.12 0.10 0.11 0.14 0.14 0.13 0.12 0.11 0.08 0.06 0.10 0.39 0.70 0.56 0.22 0.17 0.16 0.21 0.30 0.29 0.26 0.43 0.61 0.67 0.60 0.49 0.52 0.62 0.87 1.04 1.08 1.08 1.16 1.34 1.58 1.71 1.75 1.62
0.02 0.03 0.03 0.04 0.06 0.05 0.04 0.04 0.04 0.06 0.06 0.06 0.05 0.04 0.03 0.04 0.21 0.62 0.69 0.30 0.21 0.16 0.17 0.23 0.32 0.33 0.44 0.53 0.54 0.56 0.59 0.53 0.45 0.48 0.55 0.64 0.72 0.81 1.05 1.34 1.53 1.73 1.73
0.00 0.00 0.00 0.00 0.01 0.01 0.02 0.02 0.02 0.03 0.03 0.03 0.03 0.03 0.03 0.03 0.07 0.39 0.77 0.55 0.33 0.23 0.22 0.26 0.28 0.33 0.39 0.44 0.49 0.55 0.68 0.59 0.47 0.50 0.51 0.51 0.56 0.66 0.80 1.04 1.31 1.56 1.74
0.00 0.00 0.00 0.00 0.01 0.01 0.02 0.02 0.02 0.03 0.04 0.04 0.04 0.03 0.03 0.03 0.06 0.24 0.52 0.65 0.50 0.32 0.29 0.22 0.21 0.26 0.31 0.37 0.41 0.47 0.49 0.50 0.51 0.51 0.48 0.46 0.51 0.61 0.71 0.84 1.07 1.29 1.44
0.00 0.00 0.00 0.01 0.01 0.02 0.02 0.03 0.03 0.04 0.06 0.08 0.07 0.06 0.05 0.05 0.09 0.22 0.27 0.33 0.42 0.38 0.38 0.35 0.25 0.24 0.26 0.23 0.25 0.31 0.35 0.36 0.46 0.47 0.41 0.39 0.44 0.55 0.61 0.70 0.80 1.01 1.17
0.00 0.01 0.01 0.01 0.02 0.02 0.03 0.04 0.05 0.08 0.19 0.23 0.18 0.15 0.11 0.10 0.20 0.36 0.27 0.19 0.24 0.33 0.34 0.30 0.23 0.20 0.18 0.14 0.13 0.16 0.20 0.27 0.36 0.41 0.37 0.32 0.34 0.43 0.53 0.65 0.78 0.90 1.09
0.01 0.01 0.01 0.02 0.03 0.03 0.04 0.04 0.06 0.09 0.27 0.40 0.32 0.31 0.31 0.33 0.40 0.52 0.46 0.41 0.41 0.42 0.43 0.40 0.30 0.24 0.22 0.18 0.14 0.11 0.14 0.20 0.26 0.29 0.30 0.32 0.35 0.41 0.47 0.57 0.75 0.89 1.06
0.01 0.02 0.02 0.04 0.04 0.04 0.05 0.05 0.05 0.08 0.14 0.17 0.20 0.28 0.29 0.40 0.43 0.38 0.39 0.41 0.43 0.43 0.47 0.46 0.30 0.22 0.21 0.19 0.18 0.15 0.13 0.15 0.19 0.25 0.28 0.31 0.35 0.41 0.46 0.51 0.66 0.83 0.95
0.02 0.03 0.05 0.05 0.05 0.06 0.07 0.09 0.10 0.07 0.06 0.07 0.09 0.15 0.24 0.32 0.30 0.29 0.33 0.32 0.32 0.33 0.36 0.29 0.20 0.18 0.17 0.16 0.16 0.16 0.14 0.11 0.14 0.21 0.25 0.26 0.30 0.36 0.42 0.47 0.54 0.68 0.81
0.02 0.03 0.06 0.06 0.07 0.09 0.11 0.13 0.15 0.15 0.11 0.06 0.05 0.07 0.14 0.22 0.22 0.22 0.26 0.29 0.24 0.19 0.20 0.19 0.18 0.16 0.15 0.16 0.16 0.15 0.14 0.13 0.15 0.18 0.20 0.22 0.26 0.34 0.39 0.41 0.47 0.59 0.71
0.02 0.04 0.07 0.08 0.09 0.10 0.12 0.14 0.14 0.14 0.13 0.10 0.07 0.07 0.09 0.13 0.14 0.14 0.17 0.23 0.21 0.16 0.14 0.15 0.14 0.15 0.15 0.16 0.16 0.16 0.17 0.17 0.16 0.18 0.19 0.20 0.22 0.30 0.35 0.33 0.39 0.49 0.64
0.03 0.05 0.08 0.09 0.10 0.12 0.14 0.16 0.17 0.17 0.17 0.14 0.12 0.11 0.16 0.22 0.20 0.15 0.15 0.18 0.19 0.16 0.14 0.14 0.13 0.13 0.16 0.17 0.18 0.19 0.20 0.18 0.17 0.18 0.18 0.18 0.19 0.24 0.29 0.29 0.34 0.43 0.52
0.04 0.05 0.09 0.10 0.12 0.14 0.18 0.21 0.22 0.24 0.23 0.19 0.13 0.12 0.29 0.38 0.29 0.19 0.16 0.17 0.18 0.18 0.17 0.16 0.15 0.15 0.16 0.18 0.20 0.21 0.21 0.18 0.16 0.18 0.18 0.17 0.18 0.20 0.21 0.25 0.29 0.36 0.44
0.07 0.09 0.11 0.14 0.16 0.19 0.23 0.24 0.25 0.26 0.23 0.21 0.15 0.12 0.19 0.22 0.19 0.17 0.16 0.14 0.14 0.16 0.18 0.21 0.20 0.17 0.19 0.24 0.26 0.27 0.24 0.19 0.15 0.17 0.18 0.17 0.17 0.17 0.18 0.22 0.24 0.30 0.38
0.12 0.14 0.15 0.15 0.18 0.21 0.22 0.19 0.21 0.23 0.23 0.20 0.18 0.17 0.17 0.17 0.17 0.17 0.17 0.15 0.15 0.15 0.16 0.20 0.22 0.18 0.17 0.21 0.24 0.30 0.30 0.22 0.17 0.19 0.23 0.22 0.18 0.17 0.17 0.19 0.21 0.28 0.35
0.16 0.17 0.18 0.19 0.20 0.22 0.22 0.21 0.21 0.23 0.23 0.23 0.21 0.20 0.18 0.17 0.16 0.15 0.14 0.14 0.14 0.14 0.15 0.20 0.21 0.20 0.19 0.22 0.23 0.23 0.23 0.22 0.25 0.26 0.24 0.25 0.22 0.18 0.19 0.20 0.20 0.23 0.30
0.14 0.16 0.19 0.22 0.25 0.26 0.27 0.25 0.24 0.24 0.25 0.25 0.23 0.20 0.17 0.15 0.14 0.13 0.12 0.13 0.15 0.15 0.15 0.18 0.21 0.22 0.21 0.21 0.23 0.24 0.23 0.27 0.35 0.44 0.51 0.50 0.39 0.29 0.26 0.25 0.23 0.24 0.29
0.13 0.16 0.21 0.25 0.28 0.30 0.33 0.34 0.30 0.28 0.29 0.26 0.23 0.21 0.19 0.18 0.16 0.15 0.15 0.17 0.20 0.20 0.18 0.17 0.18 0.21 0.22 0.21 0.21 0.23 0.27 0.34 0.45 0.62 0.82 0.83 0.58 0.36 0.28 0.29 0.25 0.27 0.30

GEFSGL_prec_meanprecacc_144.txt.gz
Total_Precipitation_Accumulation
0.00 0.00 0.00 0.00 0.01 0.01 0.02 0.03 0.03 0.03 0.04 0.06 0.07 0.11 0.14 0.19 0.23 0.27 0.27 0.28 0.30 0.29 0.29 0.32 0.34 0.38 0.44 0.43 0.43 0.42 0.40 0.46 0.46 0.13 0.05 0.07 0.14 0.18 0.19 0.18 0.16 0.16 0.18
0.00 0.00 0.00 0.00 0.01 0.02 0.04 0.06 0.07 0.07 0.08 0.10 0.13 0.17 0.21 0.24 0.27 0.34 0.37 0.38 0.43 0.42 0.39 0.38 0.40 0.42 0.46 0.49 0.52 0.50 0.45 0.41 0.46 0.29 0.09 0.08 0.13 0.20 0.24 0.26 0.24 0.20 0.16
0.00 0.00 0.00 0.01 0.02 0.03 0.06 0.11 0.15 0.19 0.22 0.24 0.27 0.33 0.39 0.42 0.44 0.47 0.51 0.59 0.65 0.64 0.61 0.61 0.56 0.54 0.56 0.54 0.55 0.55 0.50 0.43 0.41 0.37 0.20 0.13 0.16 0.22 0.29 0.32 0.33 0.29 0.24
0.01 0.00 0.01 0.02 0.04 0.07 0.10 0.16 0.25 0.35 0.42 0.47 0.52 0.55 0.61 0.68 0.79 0.85 0.83 0.83 0.82 0.80 0.78 0.79 0.78 0.77 0.76 0.73 0.71 0.64 0.60 0.57 0.50 0.46 0.35 0.26 0.26 0.28 0.37 0.41 0.41 0.38 0.34
0.01 0.01 0.02 0.05 0.11 0.17 0.20 0.23 0.31 0.41 0.49 0.53 0.54 0.56 0.61 0.82 1.17 1.29 1.14 0.92 0.78 0.74 0.72 0.74 0.81 0.92 0.98 1.01 1.06 0.92 0.80 0.81 0.76 0.69 0.56 0.43 0.36 0.38 0.46 0.49 0.58 0.52 0.46
0.02 0.03 0.06 0.11 0.18 0.26 0.29 0.33 0.40 0.45 0.48 0.48 0.49 0.49 0.52 0.70 1.10 1.24 0.96 0.67 0.54 0.57 0.62 0.60 0.61 0.73 0.81 0.87 1.01 1.02 1.03 1.10 1.10 1.01 0.86 0.71 0.53 0.48 0.53 0.66 0.76 0.83 0.74
0.04 0.06 0.10 0.13 0.18 0.21 0.23 0.28 0.33 0.31 0.27 0.30 0.36 0.36 0.36 0.48 0.83 0.96 0.68 0.38 0.28 0.33 0.41 0.44 0.45 0.52 0.64 0.67 0.70 0.71 0.79 0.93 1.12 1.21 1.18 0.94 0.74 0.63 0.71 0.81 0.85 0.93 0.88
0.04 0.07 0.10 0.13 0.16 0.14 0.13 0.17 0.20 0.17 0.17 0.21 0.22 0.19 0.17 0.24 0.57 0.76 0.54 0.24 0.17 0.22 0.29 0.35 0.35 0.39 0.52 0.69 0.76 0.64 0.57 0.67 0.92 1.11 1.24 1.10 0.94 0.90 1.04 1.20 1.25 1.26 1.14
0.04 0.05 0.07 0.10 0.14 0.12 0.10 0.11 0.14 0.14 0.14 0.13 0.11 0.09 0.06 0.10 0.39 0.71 0.56 0.22 0.18 0.17 0.22 0.30 0.29 0.26 0.43 0.61 0.67 0.61 0.49 0.52 0.63 0.88 1.05 1.09 1.09 1.18 1.35 1.60 1.74 1.78 1.64
0.02 0.03 0.03 0.04 0.06 0.05 0.04 0.04 0.05 0.06 0.07 0.06 0.05 0.04 0.04 0.05 0.21 0.63 0.69 0.31 0.23 0.18 0.18 0.23 0.32 0.33 0.44 0.53 0.54 0.57 0.59 0.53 0.46 0.48 0.56 0.65 0.74 0.83 1.07 1.36 1.55 1.75 1.74
0.00 0.00 0.00 0.00 0.01 0.01 0.02 0.02 0.03 0.03 0.03 0.04 0.03 0.03 0.03 0.03 0.07 0.39 0.77 0.55 0.33 0.23 0.22 0.26 0.28 0.33 0.39 0.44 0.49 0.56 0.68 0.60 0.48 0.51 0.52 0.53 0.58 0.68 0.81 1.04 1.32 1.57 1.76
0.00 0.00 0.00 0.00 0.01 0.01 0.02 0.02 0.03 0.03 0.04 0.04 0.04 0.03 0.03 0.03 0.07 0.24 0.52 0.65 0.50 0.32 0.29 0.22 0.21 0.26 0.32 0.38 0.41 0.47 0.50 0.51 0.52 0.52 0.49 0.47 0.52 0.61 0.72 0.85 1.07 1.30 1.45
0.00 0.00 0.00 0.01 0.01 0.02 0.03 0.03 0.04 0.04 0.07 0.08 0.07 0.06 0.05 0.05 0.09 0.22 0.27 0.33 0.42 0.38 0.38 0.35 0.25 0.24 0.26 0.24 0.25 0.32 0.35 0.37 0.46 0.48 0.42 0.40 0.45 0.56 0.61 0.70 0.81 1.01 1.17
0.00 0.01 0.01 0.01 0.02 0.02 0.03 0.04 0.05 0.08 0.19 0.23 0.18 0.15 0.11 0.10 0.20 0.36 0.27 0.19 0.25 0.33 0.34 0.31 0.23 0.21 0.18 0.14 0.13 0.16 0.20 0.27 0.36 0.41 0.37 0.33 0.34 0.43 0.53 0.65 0.78 0.90 1.09
0.01 0.01 0.01 0.02 0.03 0.03 0.04 0.04 0.06 0.09 0.27 0.40 0.32 0.31 0.31 0.33 0.40 0.52 0.46 0.41 0.41 0.42 0.43 0.40 0.31 0.24 0.22 0.19 0.14 0.12 0.14 0.20 0.27 0.29 0.31 0.33 0.35 0.41 0.48 0.57 0.75 0.89 1.06
0.01 0.02 0.02 0.04 0.04 0.04 0.05 0.05 0.05 0.08 0.15 0.17 0.20 0.28 0.30 0.40 0.43 0.39 0.39 0.42 0.43 0.43 0.47 0.46 0.30 0.22 0.21 0.19 0.18 0.16 0.13 0.16 0.19 0.25 0.29 0.31 0.35 0.41 0.46 0.51 0.67 0.84 0.96
0.02 0.03 0.05 0.05 0.05 0.06 0.07 0.09 0.10 0.07 0.06 0.07 0.09 0.15 0.24 0.32 0.30 0.29 0.33 0.32 0.32 0.33 0.36 0.29 0.20 0.18 0.17 0.16 0.16 0.16 0.14 0.11 0.14 0.22 0.25 0.26 0.30 0.37 0.43 0.48 0.55 0.68 0.82
0.02 0.03 0.06 0.06 0.07 0.09 0.11 0.13 0.15 0.15 0.11 0.06 0.05 0.07 0.15 0.22 0.22 0.22 0.26 0.29 0.24 0.19 0.20 0.19 0.18 0.16 0.15 0.16 0.16 0.16 0.14 0.13 0.15 0.19 0.20 0.22 0.27 0.35 0.39 0.41 0.47 0.60 0.71
0.02 0.04 0.07 0.08 0.09 0.10 0.12 0.14 0.14 0.14 0.13 0.10 0.07 0.07 0.09 0.13 0.14 0.14 0.17 0.23 0.21 0.16 0.14 0.15 0.14 0.15 0.15 0.16 0.16 0.16 0.17 0.17 0.16 0.18 0.20 0.20 0.23 0.31 0.35 0.34 0.39 0.49 0.65
0.03 0.05 0.08 0.09 0.10 0.12 0.14 0.16 0.17 0.17 0.17 0.14 0.12 0.11 0.16 0.22 0.20 0.15 0.15 0.18 0.19 0.16 0.14 0.14 0.13 0.13 0.16 0.17 0.18 0.19 0.20 0.18 0.17 0.19 0.18 0.18 0.19 0.25 0.29 0.30 0.35 0.44 0.53
0.04 0.06 0.09 0.11 0.12 0.14 0.18 0.21 0.22 0.24 0.23 0.19 0.13 0.12 0.30 0.38 0.29 0.19 0.16 0.17 0.18 0.18 0.17 0.16 0.15 0.15 0.16 0.18 0.20 0.21 0.21 0.18 0.16 0.18 0.18 0.17 0.18 0.20 0.21 0.26 0.30 0.36 0.45
0.07 0.09 0.11 0.14 0.16 0.19 0.23 0.24 0.25 0.26 0.24 0.21 0.15 0.12 0.19 0.22 0.19 0.17 0.16 0.14 0.14 0.16 0.18 0.22 0.20 0.17 0.19 0.24 0.26 0.28 0.24 0.19 0.16 0.17 0.19 0.18 0.18 0.17 0.19 0.22 0.25 0.31 0.39
0.12 0.15 0.15 0.16 0.18 0.22 0.22 0.20 0.21 0.24 0.23 0.20 0.18 0.18 0.17 0.17 0.17 0.17 0.17 0.15 0.15 0.15 0.16 0.20 0.22 0.18 0.17 0.21 0.24 0.30 0.30 0.22 0.18 0.20 0.24 0.22 0.19 0.17 0.18 0.20 0.22 0.29 0.36
0.16 0.17 0.18 0.19 0.21 0.23 0.23 0.22 0.22 0.23 0.24 0.23 0.22 0.20 0.19 0.17 0.17 0.15 0.14 0.14 0.14 0.14 0.15 0.20 0.22 0.20 0.19 0.22 0.24 0.23 0.23 0.22 0.25 0.26 0.25 0.25 0.22 0.18 0.19 0.21 0.21 0.24 0.31
0.14 0.16 0.19 0.23 0.25 0.27 0.27 0.26 0.24 0.25 0.25 0.25 0.23 0.21 0.17 0.16 0.14 0.13 0.12 0.13 0.15 0.15 0.15 0.18 0.21 0.22 0.21 0.21 0.23 0.24 0.23 0.27 0.36 0.45 0.52 0.50 0.39 0.29 0.27 0.26 0.24 0.24 0.30
0.13 0.17 0.21 0.25 0.28 0.30 0.33 0.34 0.30 0.29 0.29 0.26 0.23 0.21 0.19 0.18 0.16 0.15 0.15 0.17 0.20 0.20 0.18 0.17 0.18 0.21 0.22 0.21 0.21 0.23 0.27 0.34 0.46 0.63 0.84 0.85 0.59 0.37 0.29 0.30 0.26 0.27 0.31

GEFSGL_prec_meanprecacc_150.txt.gz
Total_Precipitation_Accumulation
0.00 0.00 0.00 0.01 0.01 0.01 0.02 0.03 0.04 0.03 0.04 0.06 0.08 0.11 0.15 0.19 0.23 0.27 0.28 0.29 0.30 0.29 0.30 0.32 0.34 0.39 0.45 0.44 0.44 0.43 0.41 0.47 0.47 0.14 0.06 0.07 0.14 0.18 0.19 0.19 0.17 0.16 0.18
0.00 0.00 0.00 0.00 0.01 0.03 0.05 0.06 0.07 0.07 0.08 0.10 0.13 0.17 0.21 0.24 0.27 0.34 0.37 0.38 0.44 0.43 0.39 0.39 0.41 0.42 0.47 0.50 0.53 0.52 0.47 0.43 0.48 0.30 0.10 0.08 0.14 0.20 0.24 0.26 0.24 0.20 0.16
0.00 0.00 0.00 0.01 0.02 0.04 0.06 0.11 0.15 0.20 0.22 0.24 0.27 0.33 0.39 0.42 0.44 0.47 0.51 0.59 0.65 0.64 0.62 0.61 0.56 0.54 0.57 0.54 0.56 0.57 0.52 0.45 0.42 0.39 0.21 0.14 0.17 0.23 0.30 0.33 0.33 0.29 0.24
0.01 0.00 0.01 0.02 0.04 0.07 0.10 0.16 0.25 0.35 0.42 0.48 0.52 0.55 0.61 0.69 0.80 0.85 0.84 0.84 0.83 0.80 0.79 0.79 0.79 0.78 0.77 0.74 0.72 0.65 0.61 0.59 0.52 0.48 0.36 0.27 0.27 0.29 0.38 0.42 0.42 0.38 0.34
0.01 0.01 0.02 0.05 0.11 0.17 0.20 0.24 0.32 0.41 0.49 0.53 0.54 0.56 0.61 0.83 1.17 1.29 1.14 0.93 0.79 0.75 0.73 0.75 0.82 0.93 0.99 1.02 1.07 0.93 0.81 0.82 0.77 0.71 0.57 0.44 0.36 0.39 0.46 0.49 0.58 0.52 0.46
0.02 0.03 0.06 0.11 0.18 0.26 0.30 0.33 0.40 0.46 0.49 0.48 0.49 0.49 0.52 0.70 1.11 1.24 0.96 0.67 0.55 0.58 0.63 0.61 0.62 0.75 0.82 0.89 1.02 1.04 1.04 1.11 1.11 1.02 0.87 0.72 0.54 0.49 0.54 0.66 0.76 0.84 0.75
0.04 0.07 0.10 0.14 0.18 0.21 0.23 0.28 0.33 0.32 0.28 0.31 0.36 0.36 0.36 0.48 0.84 0.97 0.68 0.38 0.28 0.33 0.42 0.45 0.45 0.53 0.65 0.68 0.71 0.73 0.80 0.94 1.13 1.22 1.19 0.95 0.75 0.64 0.72 0.82 0.86 0.95 0.90
0.04 0.07 0.10 0.13 0.16 0.14 0.14 0.17 0.20 0.18 0.17 0.21 0.22 0.19 0.17 0.24 0.58 0.77 0.54 0.24 0.17 0.22 0.30 0.35 0.36 0.40 0.52 0.70 0.77 0.65 0.57 0.67 0.92 1.11 1.25 1.11 0.95 0.91 1.05 1.22 1.27 1.28 1.15
0.04 0.05 0.07 0.11 0.14 0.12 0.10 0.11 0.14 0.14 0.14 0.13 0.11 0.09 0.07 0.11 0.40 0.71 0.57 0.23 0.18 0.18 0.23 0.31 0.30 0.27 0.44 0.62 0.68 0.61 0.49 0.52 0.63 0.88 1.05 1.09 1.09 1.19 1.37 1.62 1.75 1.80 1.66
0.02 0.03 0.03 0.04 0.06 0.05 0.04 0.04 0.05 0.06 0.07 0.06 0.05 0.04 0.04 0.05 0.22 0.63 0.70 0.31 0.23 0.18 0.19 0.24 0.33 0.34 0.45 0.53 0.54 0.57 0.59 0.53 0.46 0.49 0.56 0.65 0.74 0.83 1.08 1.37 1.57 1.78 1.77
0.00 0.00 0.00 0.00 0.01 0.01 0.02 0.02 0.03 0.03 0.04 0.04 0.03 0.03 0.03 0.03 0.08 0.39 0.78 0.55 0.33 0.23 0.22 0.27 0.28 0.33 0.40 0.44 0.50 0.56 0.68 0.60 0.49 0.51 0.52 0.53 0.59 0.69 0.83 1.06 1.33 1.59 1.78
0.00 0.00 0.00 0.01 0.01 0.01 0.02 0.02 0.03 0.03 0.04 0.04 0.04 0.04 0.03 0.03 0.07 0.25 0.53 0.65 0.51 0.32 0.29 0.22 0.22 0.27 0.32 0.38 0.41 0.48 0.50 0.51 0.52 0.52 0.49 0.48 0.53 0.62 0.72 0.85 1.07 1.30 1.45
0.00 0.00 0.00 0.01 0.01 0.02 0.03 0.03 0.04 0.05 0.07 0.08 0.08 0.07 0.05 0.05 0.09 0.23 0.28 0.33 0.42 0.38 0.38 0.35 0.25 0.24 0.26 0.24 0.25 0.32 0.35 0.37 0.46 0.48 0.43 0.40 0.46 0.56 0.62 0.70 0.81 1.01 1.18
0.00 0.01 0.01 0.01 0.02 0.02 0.03 0.04 0.05 0.08 0.19 0.23 0.18 0.15 0.11 0.10 0.20 0.36 0.28 0.19 0.25 0.33 0.34 0.31 0.23 0.21 0.18 0.14 0.13 0.16 0.20 0.27 0.37 0.41 0.38 0.33 0.35 0.43 0.54 0.66 0.78 0.90 1.10
0.01 0.01 0.01 0.02 0.03 0.04 0.04 0.04 0.06 0.09 0.27 0.40 0.32 0.31 0.31 0.33 0.41 0.52 0.46 0.41 0.41 0.42 0.43 0.40 0.31 0.24 0.22 0.19 0.14 0.12 0.14 0.20 0.27 0.29 0.31 0.33 0.35 0.41 0.48 0.57 0.75 0.89 1.07
0.01 0.02 0.02 0.04 0.04 0.04 0.05 0.05 0.06 0.08 0.15 0.17 0.20 0.28 0.30 0.40 0.43 0.39 0.39 0.42 0.43 0.44 0.47 0.46 0.30 0.22 0.21 0.19 0.18 0.16 0.14 0.16 0.20 0.25 0.29 0.31 0.36 0.41 0.47 0.51 0.67 0.84 0.96
0.02 0.03 0.05 0.05 0.05 0.06 0.07 0.09 0.10 0.08 0.07 0.07 0.09 0.15 0.25 0.33 0.31 0.30 0.34 0.33 0.33 0.33 0.36 0.29 0.20 0.18 0.17 0.16 0.16 0.16 0.14 0.11 0.14 0.22 0.25 0.26 0.31 0.37 0.43 0.48 0.55 0.69 0.82
0.02 0.03 0.06 0.07 0.07 0.09 0.11 0.13 0.15 0.15 0.12 0.07 0.06 0.08 0.15 0.22 0.23 0.22 0.27 0.30 0.25 0.20 0.20 0.19 0.18 0.16 0.15 0.16 0.16 0.16 0.14 0.13 0.16 0.19 0.21 0.22 0.27 0.35 0.40 0.42 0.48 0.60 0.72
0.03 0.04 0.07 0.08 0.09 0.11 0.13 0.15 0.15 0.15 0.14 0.11 0.08 0.07 0.10 0.13 0.14 0.14 0.18 0.23 0.21 0.16 0.14 0.15 0.14 0.15 0.15 0.16 0.16 0.16 0.17 0.18 0.16 0.19 0.20 0.20 0.23 0.31 0.36 0.34 0.40 0.50 0.65
0.03 0.06 0.09 0.10 0.11 0.13 0.15 0.17 0.18 0.18 0.17 0.15 0.12 0.11 0.16 0.23 0.21 0.15 0.16 0.18 0.19 0.17 0.14 0.14 0.13 0.14 0.16 0.18 0.19 0.19 0.20 0.18 0.17 0.19 0.19 0.18 0.19 0.25 0.30 0.30 0.35 0.44 0.54
0.05 0.06 0.10 0.11 0.13 0.16 0.19 0.22 0.23 0.24 0.23 0.19 0.13 0.12 0.30 0.38 0.29 0.19 0.17 0.17 0.19 0.19 0.17 0.17 0.15 0.15 0.16 0.18 0.20 0.21 0.21 0.19 0.17 0.18 0.18 0.18 0.19 0.21 0.22 0.26 0.30 0.37 0.45
0.07 0.09 0.12 0.15 0.17 0.20 0.24 0.25 0.26 0.27 0.24 0.21 0.15 0.12 0.19 0.22 0.20 0.17 0.16 0.15 0.14 0.16 0.18 0.22 0.20 0.18 0.20 0.24 0.26 0.28 0.24 0.19 0.16 0.18 0.19 0.18 0.18 0.18 0.19 0.23 0.25 0.32 0.39
0.13 0.15 0.16 0.17 0.19 0.22 0.23 0.20 0.22 0.24 0.23 0.21 0.19 0.18 0.17 0.17 0.17 0.18 0.17 0.15 0.15 0.15 0.16 0.20 0.22 0.18 0.17 0.21 0.24 0.30 0.31 0.23 0.18 0.20 0.24 0.23 0.20 0.18 0.18 0.21 0.23 0.29 0.36
0.17 0.18 0.20 0.21 0.22 0.24 0.24 0.23 0.23 0.24 0.24 0.24 0.22 0.21 0.19 0.18 0.17 0.15 0.14 0.14 0.14 0.14 0.16 0.20 0.22 0.20 0.19 0.23 0.24 0.23 0.24 0.23 0.26 0.27 0.26 0.26 0.23 0.19 0.20 0.22 0.21 0.25 0.32
0.16 0.18 0.20 0.23 0.26 0.28 0.29 0.28 0.26 0.26 0.27 0.26 0.24 0.21 0.18 0.16 0.15 0.13 0.12 0.13 0.15 0.15 0.15 0.18 0.21 0.22 0.21 0.21 0.23 0.24 0.23 0.28 0.37 0.46 0.53 0.52 0.41 0.30 0.28 0.27 0.25 0.25 0.31
0.15 0.18 0.22 0.26 0.29 0.31 0.34 0.35 0.31 0.29 0.30 0.27 0.23 0.22 0.20 0.18 0.17 0.15 0.15 0.17 0.20 0.20 0.18 0.17 0.18 0.21 0.22 0.22 0.21 0.24 0.28 0.35 0.46 0.64 0.85 0.86 0.60 0.38 0.31 0.31 0.27 0.29 0.32

GEFSGL_prec_meanprecacc_156.txt.gz
Total_Precipitation_Accumulation
0.01 0.00 0.01 0.01 0.01 0.01 0.02 0.03 0.04 0.03 0.04 0.06 0.08 0.11 0.15 0.20 0.23 0.27 0.28 0.29 0.31 0.30 0.30 0.33 0.35 0.39 0.45 0.45 0.44 0.44 0.42 0.49 0.49 0.15 0.06 0.08 0.14 0.19 0.20 0.19 0.17 0.16 0.18
0.00 0.00 0.00 0.01 0.01 0.03 0.05 0.06 0.07 0.07 0.08 0.10 0.14 0.17 0.21 0.25 0.28 0.34 0.38 0.39 0.44 0.43 0.40 0.40 0.41 0.43 0.47 0.50 0.54 0.52 0.48 0.44 0.50 0.32 0.11 0.09 0.14 0.21 0.25 0.26 0.25 0.20 0.17
0.00 0.01 0.01 0.01 0.02 0.04 0.06 0.11 0.15 0.20 0.22 0.25 0.28 0.33 0.39 0.43 0.44 0.47 0.51 0.59 0.66 0.65 0.62 0.62 0.57 0.55 0.58 0.55 0.57 0.58 0.53 0.46 0.44 0.40 0.22 0.15 0.18 0.23 0.31 0.33 0.33 0.30 0.24
0.01 0.01 0.01 0.02 0.04 0.07 0.10 0.16 0.25 0.35 0.42 0.48 0.52 0.55 0.61 0.69 0.80 0.85 0.84 0.84 0.83 0.81 0.79 0.80 0.80 0.78 0.78 0.75 0.73 0.66 0.62 0.60 0.53 0.50 0.38 0.28 0.28 0.30 0.39 0.42 0.42 0.38 0.34
0.01 0.02 0.03 0.05 0.11 0.17 0.20 0.24 0.32 0.41 0.49 0.53 0.55 0.56 0.61 0.83 1.17 1.30 1.14 0.93 0.80 0.75 0.74 0.75 0.83 0.94 1.00 1.03 1.08 0.94 0.82 0.84 0.79 0.72 0.58 0.45 0.37 0.40 0.47 0.50 0.59 0.53 0.47
0.02 0.03 0.06 0.12 0.19 0.26 0.30 0.33 0.40 0.46 0.49 0.48 0.49 0.50 0.52 0.70 1.11 1.25 0.96 0.68 0.56 0.58 0.64 0.62 0.64 0.76 0.84 0.90 1.03 1.05 1.05 1.12 1.12 1.02 0.88 0.73 0.55 0.50 0.55 0.67 0.78 0.85 0.76
0.04 0.07 0.10 0.14 0.18 0.21 0.24 0.29 0.34 0.32 0.28 0.31 0.37 0.36 0.36 0.48 0.85 0.97 0.69 0.39 0.29 0.34 0.42 0.45 0.46 0.53 0.66 0.68 0.72 0.73 0.81 0.95 1.14 1.23 1.20 0.96 0.76 0.65 0.73 0.83 0.87 0.96 0.90
0.04 0.07 0.10 0.13 0.16 0.15 0.14 0.18 0.21 0.18 0.18 0.21 0.22 0.19 0.17 0.25 0.59 0.77 0.55 0.24 0.18 0.22 0.30 0.35 0.36 0.40 0.53 0.70 0.77 0.65 0.58 0.68 0.93 1.12 1.25 1.12 0.95 0.91 1.06 1.22 1.28 1.28 1.16
0.04 0.05 0.07 0.11 0.14 0.12 0.10 0.11 0.14 0.15 0.14 0.13 0.12 0.09 0.07 0.11 0.40 0.71 0.57 0.23 0.19 0.19 0.24 0.32 0.30 0.27 0.45 0.63 0.68 0.61 0.50 0.53 0.64 0.89 1.06 1.10 1.10 1.19 1.37 1.62 1.76 1.81 1.66
0.02 0.03 0.03 0.04 0.06 0.05 0.04 0.04 0.05 0.06 0.07 0.06 0.05 0.04 0.04 0.05 0.22 0.64 0.70 0.32 0.24 0.19 0.19 0.24 0.33 0.34 0.45 0.54 0.55 0.57 0.60 0.54 0.47 0.49 0.57 0.65 0.74 0.83 1.09 1.38 1.58 1.79 1.78
0.00 0.00 0.00 0.01 0.01 0.01 0.02 0.02 0.03 0.03 0.04 0.04 0.04 0.03 0.03 0.03 0.08 0.40 0.78 0.56 0.34 0.24 0.23 0.27 0.28 0.34 0.41 0.45 0.50 0.56 0.69 0.60 0.49 0.51 0.52 0.53 0.59 0.69 0.83 1.07 1.34 1.60 1.79
0.00 0.00 0.00 0.01 0.01 0.01 0.02 0.03 0.03 0.03 0.04 0.05 0.04 0.04 0.03 0.03 0.07 0.25 0.53 0.66 0.51 0.33 0.29 0.22 0.22 0.27 0.33 0.39 0.42 0.48 0.51 0.52 0.53 0.52 0.50 0.48 0.54 0.63 0.73 0.86 1.07 1.30 1.46
0.00 0.00 0.01 0.01 0.01 0.02 0.03 0.03 0.04 0.05 0.07 0.09 0.08 0.07 0.05 0.05 0.09 0.23 0.28 0.34 0.43 0.38 0.38 0.36 0.26 0.25 0.27 0.24 0.26 0.33 0.36 0.37 0.46 0.48 0.43 0.41 0.46 0.57 0.62 0.71 0.81 1.01 1.18
0.00 0.01 0.01 0.01 0.02 0.02 0.03 0.04 0.05 0.08 0.19 0.23 0.18 0.15 0.12 0.10 0.20 0.37 0.28 0.19 0.25 0.33 0.35 0.31 0.24 0.21 0.19 0.15 0.14 0.17 0.21 0.28 0.37 0.42 0.38 0.33 0.35 0.43 0.54 0.66 0.79 0.91 1.10
0.01 0.01 0.01 0.02 0.03 0.04 0.04 0.04 0.07 0.10 0.27 0.40 0.32 0.31 0.31 0.33 0.41 0.52 0.46 0.41 0.41 0.43 0.44 0.41 0.32 0.25 0.23 0.19 0.15 0.12 0.14 0.20 0.27 0.29 0.31 0.33 0.35 0.41 0.48 0.57 0.76 0.90 1.07
0.02 0.02 0.03 0.04 0.04 0.04 0.05 0.05 0.06 0.08 0.15 0.18 0.20 0.29 0.30 0.40 0.44 0.39 0.40 0.42 0.44 0.44 0.48 0.47 0.31 0.22 0.21 0.20 0.18 0.16 0.14 0.16 0.20 0.25 0.29 0.32 0.36 0.42 0.47 0.52 0.67 0.84 0.97
0.02 0.03 0.05 0.05 0.05 0.06 0.07 0.09 0.10 0.08 0.07 0.07 0.10 0.15 0.25 0.33 0.31 0.30 0.34 0.34 0.33 0.34 0.37 0.29 0.21 0.18 0.17 0.16 0.16 0.16 0.14 0.11 0.14 0.22 0.25 0.26 0.31 0.37 0.43 0.48 0.55 0.69 0.83
0.02 0.04 0.06 0.07 0.07 0.09 0.11 0.13 0.15 0.15 0.12 0.07 0.06 0.08 0.16 0.23 0.23 0.23 0.28 0.31 0.26 0.20 0.21 0.19 0.18 0.16 0.15 0.16 0.16 0.16 0.14 0.13 0.16 0.19 0.21 0.22 0.27 0.36 0.40 0.42 0.48 0.61 0.72
0.03 0.05 0.07 0.08 0.09 0.11 0.13 0.15 0.15 0.15 0.14 0.11 0.08 0.09 0.11 0.15 0.15 0.15 0.18 0.24 0.22 0.17 0.15 0.15 0.15 0.15 0.16 0.16 0.16 0.16 0.18 0.18 0.17 0.19 0.20 0.20 0.23 0.32 0.36 0.34 0.40 0.50 0.66
0.04 0.06 0.10 0.10 0.11 0.13 0.15 0.17 0.18 0.19 0.18 0.16 0.13 0.12 0.18 0.24 0.22 0.16 0.16 0.19 0.20 0.17 0.14 0.14 0.13 0.14 0.16 0.18 0.19 0.20 0.21 0.19 0.17 0.19 0.19 0.19 0.20 0.26 0.30 0.31 0.36 0.45 0.54
0.05 0.07 0.11 0.13 0.14 0.17 0.20 0.22 0.24 0.25 0.24 0.20 0.15 0.13 0.31 0.39 0.30 0.19 0.17 0.17 0.19 0.19 0.18 0.17 0.16 0.16 0.16 0.18 0.21 0.22 0.22 0.19 0.17 0.19 0.19 0.18 0.19 0.21 0.22 0.27 0.31 0.37 0.46
0.08 0.10 0.13 0.16 0.18 0.22 0.26 0.27 0.27 0.28 0.25 0.22 0.16 0.13 0.20 0.23 0.20 0.18 0.16 0.15 0.15 0.17 0.19 0.22 0.21 0.18 0.20 0.24 0.27 0.28 0.25 0.20 0.17 0.18 0.19 0.18 0.18 0.18 0.20 0.23 0.26 0.32 0.40
0.13 0.16 0.17 0.18 0.20 0.24 0.25 0.22 0.24 0.25 0.24 0.21 0.19 0.19 0.18 0.18 0.18 0.18 0.17 0.16 0.15 0.16 0.16 0.21 0.23 0.19 0.18 0.21 0.25 0.31 0.31 0.23 0.18 0.20 0.25 0.23 0.20 0.18 0.19 0.21 0.23 0.30 0.37
0.18 0.19 0.21 0.22 0.24 0.25 0.25 0.24 0.24 0.25 0.25 0.25 0.23 0.21 0.19 0.18 0.17 0.16 0.15 0.15 0.15 0.15 0.16 0.21 0.22 0.20 0.20 0.23 0.24 0.24 0.24 0.23 0.26 0.27 0.26 0.26 0.24 0.20 0.21 0.23 0.22 0.26 0.33
0.18 0.20 0.22 0.25 0.28 0.30 0.30 0.29 0.28 0.27 0.28 0.28 0.26 0.23 0.19 0.17 0.16 0.14 0.13 0.14 0.16 0.16 0.16 0.18 0.21 0.22 0.21 0.22 0.23 0.24 0.24 0.28 0.37 0.46 0.53 0.52 0.41 0.31 0.29 0.28 0.26 0.26 0.32
0.18 0.21 0.25 0.28 0.31 0.33 0.36 0.37 0.33 0.31 0.31 0.28 0.25 0.23 0.21 0.20 0.18 0.17 0.17 0.18 0.21 0.21 0.18 0.17 0.18 0.21 0.22 0.22 0.22 0.24 0.28 0.35 0.47 0.65 0.85 0.87 0.61 0.39 0.31 0.32 0.28 0.30 0.33

GEFSGL_prec_meanprecacc_162.txt.gz
Total_Precipitation_Accumulation
0.02 0.01 0.02 0.03 0.02 0.02 0.02 0.03 0.04 0.04 0.04 0.06 0.08 0.11 0.15 0.20 0.23 0.27 0.28 0.30 0.31 0.30 0.31 0.33 0.35 0.39 0.45 0.45 0.45 0.44 0.43 0.49 0.50 0.15 0.07 0.08 0.15 0.19 0.21 0.19 0.17 0.16 0.18
0.02 0.02 0.01 0.02 0.02 0.03 0.05 0.07 0.07 0.07 0.08 0.10 0.14 0.17 0.22 0.25 0.28 0.34 0.38 0.39 0.44 0.44 0.40 0.40 0.42 0.43 0.48 0.51 0.54 0.53 0.48 0.45 0.51 0.34 0.12 0.10 0.16 0.22 0.25 0.27 0.25 0.20 0.17
0.02 0.03 0.02 0.02 0.03 0.04 0.07 0.11 0.16 0.20 0.23 0.25 0.28 0.33 0.39 0.43 0.45 0.47 0.52 0.60 0.66 0.65 0.63 0.62 0.57 0.56 0.59 0.56 0.58 0.59 0.54 0.48 0.45 0.42 0.24 0.17 0.19 0.24 0.31 0.33 0.33 0.30 0.24
0.02 0.03 0.03 0.03 0.05 0.07 0.10 0.16 0.25 0.35 0.42 0.48 0.52 0.55 0.61 0.69 0.80 0.85 0.84 0.84 0.84 0.81 0.80 0.80 0.80 0.79 0.78 0.76 0.74 0.68 0.64 0.62 0.55 0.52 0.41 0.29 0.29 0.30 0.39 0.43 0.42 0.39 0.34
0.02 0.03 0.05 0.07 0.13 0.19 0.21 0.24 0.32 0.41 0.49 0.53 0.55 0.57 0.62 0.83 1.18 1.30 1.15 0.93 0.80 0.76 0.74 0.76 0.84 0.96 1.02 1.05 1.10 0.96 0.84 0.86 0.81 0.74 0.59 0.45 0.38 0.41 0.48 0.50 0.59 0.53 0.47
0.02 0.04 0.07 0.14 0.21 0.28 0.31 0.34 0.41 0.46 0.49 0.49 0.49 0.50 0.52 0.70 1.12 1.25 0.97 0.68 0.56 0.59 0.65 0.63 0.65 0.78 0.86 0.92 1.05 1.06 1.06 1.12 1.13 1.03 0.89 0.74 0.56 0.51 0.55 0.68 0.78 0.85 0.76
0.04 0.07 0.11 0.15 0.20 0.24 0.26 0.30 0.34 0.32 0.29 0.31 0.37 0.36 0.36 0.48 0.85 0.97 0.69 0.39 0.29 0.34 0.43 0.46 0.46 0.54 0.67 0.69 0.72 0.74 0.81 0.95 1.14 1.23 1.21 0.96 0.76 0.66 0.74 0.84 0.87 0.96 0.91
0.05 0.08 0.11 0.14 0.17 0.16 0.16 0.20 0.23 0.19 0.19 0.22 0.23 0.20 0.17 0.25 0.59 0.77 0.55 0.25 0.18 0.23 0.31 0.36 0.37 0.40 0.53 0.71 0.77 0.65 0.58 0.69 0.93 1.12 1.26 1.12 0.95 0.92 1.06 1.23 1.28 1.28 1.16
0.05 0.06 0.08 0.11 0.15 0.13 0.11 0.13 0.16 0.16 0.15 0.14 0.12 0.09 0.07 0.11 0.41 0.72 0.58 0.23 0.20 0.20 0.25 0.32 0.31 0.27 0.45 0.63 0.69 0.62 0.50 0.53 0.64 0.89 1.06 1.10 1.10 1.20 1.37 1.62 1.76 1.81 1.67
0.03 0.04 0.04 0.05 0.07 0.06 0.04 0.04 0.06 0.07 0.08 0.07 0.06 0.05 0.04 0.05 0.23 0.64 0.71 0.32 0.25 0.20 0.20 0.25 0.34 0.35 0.46 0.54 0.55 0.57 0.60 0.54 0.47 0.50 0.57 0.66 0.75 0.84 1.09 1.38 1.58 1.79 1.79
0.01 0.01 0.01 0.01 0.02 0.02 0.02 0.02 0.03 0.04 0.05 0.05 0.05 0.04 0.04 0.04 0.09 0.41 0.79 0.56 0.34 0.24 0.23 0.27 0.29 0.35 0.41 0.46 0.51 0.57 0.69 0.61 0.49 0.52 0.53 0.54 0.59 0.69 0.84 1.07 1.34 1.60 1.80
0.01 0.01 0.01 0.01 0.02 0.02 0.03 0.03 0.03 0.04 0.05 0.06 0.05 0.05 0.04 0.04 0.08 0.26 0.54 0.67 0.52 0.33 0.29 0.22 0.22 0.28 0.33 0.39 0.42 0.48 0.51 0.52 0.53 0.53 0.50 0.49 0.54 0.63 0.73 0.86 1.08 1.31 1.46
0.01 0.01 0.02 0.02 0.02 0.03 0.04 0.05 0.05 0.06 0.08 0.09 0.09 0.08 0.06 0.06 0.10 0.25 0.29 0.34 0.43 0.39 0.39 0.37 0.26 0.26 0.27 0.25 0.26 0.34 0.37 0.38 0.47 0.49 0.43 0.41 0.46 0.57 0.62 0.71 0.81 1.02 1.19
0.02 0.02 0.02 0.03 0.03 0.04 0.05 0.06 0.07 0.10 0.20 0.24 0.19 0.16 0.12 0.11 0.21 0.37 0.28 0.20 0.26 0.34 0.35 0.32 0.25 0.22 0.20 0.16 0.15 0.17 0.21 0.28 0.37 0.42 0.38 0.34 0.35 0.44 0.54 0.66 0.79 0.91 1.11
0.02 0.02 0.03 0.03 0.04 0.05 0.05 0.05 0.08 0.11 0.29 0.41 0.32 0.31 0.31 0.33 0.41 0.53 0.46 0.41 0.42 0.44 0.44 0.41 0.32 0.26 0.24 0.20 0.15 0.12 0.15 0.21 0.28 0.30 0.31 0.33 0.35 0.41 0.48 0.58 0.76 0.90 1.08
0.03 0.03 0.04 0.05 0.05 0.06 0.06 0.06 0.08 0.10 0.17 0.20 0.21 0.29 0.30 0.41 0.44 0.39 0.40 0.43 0.44 0.45 0.49 0.48 0.31 0.23 0.22 0.20 0.18 0.16 0.14 0.16 0.20 0.25 0.29 0.32 0.36 0.42 0.47 0.52 0.68 0.85 0.97
0.03 0.05 0.06 0.06 0.06 0.07 0.08 0.10 0.12 0.10 0.09 0.09 0.11 0.16 0.26 0.34 0.31 0.30 0.35 0.34 0.34 0.35 0.38 0.30 0.21 0.19 0.18 0.16 0.16 0.16 0.15 0.11 0.15 0.22 0.26 0.27 0.31 0.38 0.44 0.49 0.56 0.70 0.83
0.03 0.05 0.07 0.08 0.08 0.09 0.11 0.14 0.16 0.16 0.13 0.09 0.08 0.10 0.17 0.23 0.24 0.23 0.29 0.32 0.27 0.22 0.21 0.20 0.18 0.16 0.16 0.16 0.16 0.16 0.15 0.14 0.16 0.19 0.21 0.22 0.27 0.36 0.40 0.42 0.48 0.61 0.73
0.04 0.05 0.08 0.09 0.10 0.11 0.13 0.15 0.15 0.16 0.15 0.12 0.09 0.10 0.12 0.16 0.17 0.16 0.20 0.25 0.22 0.17 0.15 0.15 0.15 0.15 0.16 0.16 0.16 0.17 0.18 0.18 0.17 0.19 0.20 0.21 0.24 0.32 0.36 0.35 0.41 0.51 0.66
0.05 0.08 0.11 0.11 0.12 0.14 0.15 0.18 0.18 0.19 0.19 0.16 0.14 0.13 0.18 0.25 0.23 0.18 0.17 0.19 0.21 0.18 0.15 0.15 0.13 0.14 0.16 0.18 0.19 0.20 0.21 0.19 0.18 0.20 0.19 0.19 0.20 0.27 0.31 0.32 0.37 0.46 0.55
0.06 0.08 0.12 0.13 0.14 0.17 0.21 0.23 0.24 0.26 0.25 0.21 0.15 0.14 0.31 0.39 0.30 0.20 0.18 0.18 0.20 0.20 0.18 0.17 0.16 0.16 0.17 0.19 0.22 0.22 0.23 0.20 0.18 0.19 0.19 0.18 0.19 0.22 0.23 0.27 0.32 0.38 0.47
0.08 0.10 0.13 0.17 0.19 0.22 0.26 0.27 0.28 0.28 0.25 0.23 0.17 0.14 0.21 0.24 0.21 0.18 0.17 0.16 0.15 0.17 0.19 0.23 0.21 0.19 0.21 0.25 0.28 0.29 0.26 0.20 0.17 0.18 0.20 0.19 0.19 0.19 0.20 0.24 0.27 0.33 0.40
0.14 0.16 0.17 0.18 0.21 0.25 0.25 0.22 0.24 0.26 0.25 0.22 0.20 0.19 0.19 0.19 0.18 0.18 0.18 0.16 0.16 0.16 0.17 0.21 0.23 0.20 0.19 0.22 0.26 0.31 0.32 0.24 0.19 0.21 0.25 0.23 0.20 0.19 0.19 0.22 0.24 0.31 0.38
0.19 0.20 0.21 0.23 0.25 0.26 0.26 0.24 0.25 0.26 0.27 0.26 0.25 0.23 0.21 0.19 0.18 0.16 0.15 0.15 0.16 0.16 0.17 0.21 0.23 0.21 0.20 0.24 0.25 0.25 0.25 0.24 0.26 0.28 0.26 0.27 0.24 0.20 0.22 0.23 0.23 0.26 0.34
0.19 0.21 0.23 0.27 0.29 0.30 0.31 0.30 0.29 0.28 0.29 0.29 0.28 0.25 0.21 0.19 0.17 0.16 0.15 0.16 0.18 0.18 0.17 0.20 0.23 0.23 0.22 0.23 0.24 0.25 0.24 0.29 0.37 0.47 0.54 0.53 0.42 0.32 0.29 0.29 0.26 0.27 0.33
0.19 0.22 0.26 0.30 0.33 0.34 0.37 0.38 0.34 0.33 0.33 0.30 0.27 0.25 0.24 0.23 0.21 0.19 0.19 0.21 0.24 0.23 0.21 0.20 0.21 0.23 0.24 0.23 0.23 0.25 0.29 0.36 0.47 0.65 0.86 0.87 0.62 0.39 0.32 0.33 0.29 0.30 0.34

GEFSGL_prec_meanprecacc_168.txt.gz
Total_Precipitation_Accumulation
0.06 0.05 0.06 0.07 0.07 0.05 0.04 0.04 0.04 0.05 0.05 0.07 0.08 0.11 0.15 0.20 0.24 0.27 0.28 0.30 0.31 0.30 0.31 0.33 0.35 0.39 0.46 0.45 0.45 0.45 0.44 0.50 0.51 0.16 0.07 0.09 0.16 0.20 0.21 0.20 0.17 0.16 0.18
0.06 0.06 0.05 0.05 0.06 0.07 0.08 0.08 0.07 0.08 0.09 0.11 0.14 0.17 0.22 0.25 0.28 0.34 0.38 0.39 0.44 0.44 0.40 0.40 0.42 0.43 0.48 0.51 0.55 0.54 0.49 0.46 0.52 0.34 0.12 0.11 0.17 0.23 0.26 0.27 0.25 0.21 0.17
0.06 0.06 0.05 0.05 0.05 0.08 0.10 0.13 0.16 0.20 0.23 0.26 0.28 0.33 0.40 0.43 0.45 0.48 0.52 0.60 0.66 0.65 0.63 0.62 0.58 0.56 0.59 0.57 0.59 0.59 0.55 0.48 0.46 0.43 0.26 0.19 0.20 0.25 0.31 0.34 0.33 0.30 0.24
0.06 0.07 0.07 0.06 0.07 0.10 0.14 0.19 0.27 0.36 0.43 0.48 0.53 0.56 0.61 0.69 0.80 0.85 0.84 0.84 0.84 0.81 0.80 0.80 0.80 0.79 0.79 0.76 0.75 0.68 0.65 0.64 0.57 0.54 0.42 0.30 0.29 0.30 0.40 0.43 0.43 0.39 0.34
0.05 0.07 0.08 0.10 0.15 0.21 0.24 0.28 0.35 0.43 0.50 0.54 0.56 0.57 0.62 0.84 1.18 1.30 1.15 0.93 0.80 0.76 0.74 0.76 0.84 0.96 1.02 1.06 1.10 0.97 0.85 0.87 0.81 0.74 0.60 0.46 0.38 0.41 0.48 0.50 0.59 0.53 0.47
0.04 0.06 0.10 0.16 0.23 0.31 0.34 0.38 0.45 0.49 0.51 0.50 0.50 0.51 0.53 0.71 1.13 1.26 0.97 0.69 0.57 0.59 0.65 0.63 0.65 0.79 0.86 0.93 1.06 1.07 1.07 1.13 1.13 1.03 0.89 0.74 0.56 0.51 0.55 0.68 0.78 0.86 0.76
0.06 0.08 0.12 0.17 0.21 0.25 0.29 0.35 0.39 0.37 0.31 0.33 0.38 0.37 0.38 0.50 0.87 0.98 0.70 0.40 0.30 0.35 0.43 0.46 0.47 0.55 0.67 0.69 0.73 0.75 0.82 0.96 1.15 1.23 1.21 0.97 0.77 0.66 0.74 0.84 0.87 0.96 0.91
0.06 0.09 0.12 0.15 0.19 0.18 0.19 0.24 0.28 0.24 0.22 0.24 0.24 0.20 0.18 0.26 0.61 0.79 0.57 0.26 0.19 0.24 0.31 0.36 0.38 0.41 0.54 0.71 0.78 0.66 0.59 0.69 0.94 1.13 1.26 1.12 0.96 0.92 1.06 1.23 1.28 1.28 1.16
0.05 0.06 0.09 0.12 0.16 0.14 0.13 0.16 0.21 0.22 0.20 0.17 0.14 0.10 0.08 0.12 0.42 0.74 0.60 0.25 0.20 0.20 0.25 0.33 0.32 0.28 0.46 0.64 0.69 0.62 0.50 0.53 0.64 0.90 1.07 1.11 1.11 1.20 1.38 1.62 1.76 1.81 1.67
0.03 0.04 0.04 0.06 0.07 0.07 0.05 0.07 0.10 0.12 0.13 0.12 0.09 0.07 0.05 0.06 0.24 0.66 0.73 0.34 0.26 0.21 0.21 0.26 0.35 0.36 0.47 0.55 0.56 0.58 0.61 0.54 0.47 0.50 0.58 0.66 0.75 0.84 1.09 1.38 1.58 1.80 1.79
0.02 0.02 0.01 0.02 0.02 0.02 0.03 0.04 0.06 0.08 0.09 0.09 0.08 0.07 0.05 0.05 0.11 0.42 0.80 0.57 0.35 0.25 0.24 0.28 0.30 0.36 0.42 0.46 0.51 0.57 0.70 0.61 0.50 0.52 0.53 0.54 0.59 0.70 0.84 1.07 1.34 1.61 1.81
0.01 0.02 0.02 0.02 0.02 0.03 0.04 0.05 0.05 0.07 0.09 0.10 0.10 0.08 0.07 0.06 0.10 0.28 0.55 0.68 0.53 0.34 0.30 0.23 0.23 0.29 0.34 0.40 0.43 0.49 0.52 0.53 0.54 0.54 0.51 0.49 0.54 0.63 0.74 0.86 1.08 1.31 1.47
0.02 0.02 0.03 0.03 0.03 0.04 0.05 0.06 0.07 0.08 0.11 0.12 0.13 0.12 0.10 0.09 0.13 0.28 0.32 0.37 0.46 0.41 0.40 0.38 0.28 0.27 0.28 0.26 0.28 0.35 0.38 0.40 0.48 0.50 0.44 0.41 0.46 0.57 0.63 0.71 0.82 1.02 1.19
0.03 0.03 0.03 0.04 0.05 0.05 0.06 0.07 0.09 0.12 0.22 0.26 0.21 0.19 0.16 0.15 0.24 0.40 0.32 0.24 0.30 0.37 0.38 0.34 0.26 0.24 0.21 0.17 0.16 0.19 0.23 0.29 0.38 0.43 0.39 0.34 0.35 0.44 0.55 0.67 0.80 0.92 1.11
0.04 0.04 0.05 0.05 0.06 0.07 0.07 0.07 0.10 0.13 0.30 0.43 0.33 0.33 0.34 0.38 0.45 0.56 0.50 0.44 0.44 0.46 0.46 0.43 0.34 0.27 0.25 0.22 0.17 0.14 0.16 0.22 0.29 0.30 0.32 0.34 0.36 0.42 0.49 0.58 0.77 0.91 1.09
0.06 0.06 0.06 0.07 0.07 0.08 0.08 0.09 0.11 0.13 0.19 0.22 0.24 0.31 0.32 0.43 0.48 0.43 0.44 0.46 0.47 0.48 0.51 0.50 0.33 0.24 0.23 0.21 0.20 0.17 0.15 0.17 0.20 0.25 0.29 0.32 0.36 0.43 0.48 0.53 0.68 0.86 0.98
0.06 0.07 0.09 0.09 0.09 0.10 0.10 0.12 0.14 0.13 0.13 0.13 0.16 0.21 0.30 0.37 0.34 0.34 0.38 0.37 0.37 0.38 0.41 0.32 0.23 0.20 0.19 0.18 0.17 0.17 0.16 0.12 0.15 0.22 0.26 0.27 0.32 0.38 0.44 0.49 0.56 0.70 0.84
0.06 0.08 0.11 0.10 0.10 0.12 0.14 0.16 0.18 0.18 0.16 0.12 0.12 0.15 0.22 0.29 0.29 0.28 0.33 0.36 0.30 0.25 0.23 0.22 0.20 0.18 0.17 0.18 0.17 0.17 0.16 0.14 0.17 0.20 0.21 0.23 0.28 0.37 0.41 0.43 0.49 0.62 0.74
0.07 0.08 0.11 0.12 0.12 0.13 0.15 0.18 0.18 0.18 0.17 0.14 0.13 0.15 0.18 0.22 0.23 0.23 0.25 0.28 0.24 0.19 0.17 0.16 0.16 0.16 0.17 0.17 0.17 0.18 0.19 0.19 0.18 0.20 0.21 0.22 0.24 0.33 0.38 0.36 0.42 0.52 0.68
0.08 0.12 0.15 0.15 0.15 0.17 0.18 0.20 0.21 0.22 0.21 0.19 0.17 0.16 0.23 0.30 0.27 0.22 0.21 0.22 0.22 0.19 0.16 0.16 0.15 0.15 0.17 0.19 0.20 0.21 0.22 0.20 0.19 0.21 0.21 0.20 0.21 0.28 0.32 0.33 0.38 0.47 0.56
0.10 0.12 0.16 0.17 0.18 0.21 0.23 0.26 0.26 0.28 0.27 0.23 0.17 0.16 0.34 0.41 0.32 0.22 0.19 0.20 0.22 0.21 0.19 0.19 0.17 0.17 0.18 0.20 0.22 0.23 0.24 0.21 0.19 0.21 0.21 0.20 0.21 0.24 0.24 0.28 0.32 0.39 0.48
0.12 0.14 0.16 0.19 0.22 0.25 0.29 0.30 0.31 0.31 0.28 0.25 0.19 0.17 0.24 0.25 0.22 0.19 0.17 0.17 0.17 0.19 0.21 0.25 0.23 0.20 0.22 0.26 0.29 0.30 0.27 0.22 0.18 0.20 0.21 0.20 0.20 0.20 0.21 0.25 0.28 0.34 0.41
0.17 0.20 0.21 0.22 0.24 0.29 0.29 0.25 0.27 0.29 0.28 0.25 0.22 0.21 0.20 0.20 0.19 0.19 0.19 0.17 0.17 0.18 0.19 0.23 0.25 0.21 0.20 0.24 0.27 0.33 0.33 0.25 0.20 0.22 0.27 0.25 0.22 0.20 0.20 0.23 0.25 0.31 0.39
0.22 0.23 0.25 0.27 0.28 0.29 0.29 0.27 0.27 0.28 0.29 0.28 0.27 0.24 0.22 0.20 0.19 0.18 0.17 0.17 0.18 0.18 0.18 0.22 0.24 0.22 0.22 0.26 0.27 0.27 0.27 0.26 0.29 0.30 0.28 0.29 0.26 0.22 0.23 0.24 0.24 0.28 0.35
0.23 0.24 0.27 0.30 0.33 0.34 0.34 0.33 0.31 0.31 0.31 0.31 0.29 0.26 0.23 0.20 0.19 0.17 0.17 0.18 0.20 0.20 0.19 0.22 0.25 0.26 0.25 0.25 0.27 0.27 0.27 0.32 0.40 0.50 0.56 0.55 0.43 0.33 0.30 0.30 0.27 0.28 0.34
0.23 0.25 0.29 0.33 0.36 0.38 0.40 0.40 0.37 0.35 0.35 0.32 0.28 0.27 0.26 0.25 0.23 0.21 0.21 0.23 0.26 0.25 0.23 0.22 0.23 0.27 0.28 0.26 0.26 0.29 0.33 0.40 0.51 0.68 0.89 0.89 0.63 0.41 0.33 0.34 0.30 0.32 0.35